| time (UTC) | temp F | wind direction | speed knots | gust knots | rain 1hr in | rain 24hr in | rain mn in | humidity % | barometer mb |
| 20260506035419 | 65 | 234 | 0.9 | 2.6 | 0.00 | 0.00 | 0.00 | 75 | 1009.2 |
| 20260506035219 | 65 | 154 | 0.9 | 3.5 | 0.00 | 0.00 | 0.00 | 75 | 1009.0 |
| 20260506035119 | 65 | 129 | 3.5 | 3.5 | 0.00 | 0.00 | 0.00 | 75 | 1009.1 |
| 20260506035019 | 64 | 188 | 0.9 | 3.5 | 0.00 | 0.00 | 0.00 | 75 | 1009.2 |
| 20260506034919 | 64 | 300 | 1.7 | 3.5 | 0.00 | 0.00 | 0.00 | 75 | 1009.3 |
| 20260506034619 | 64 | 344 | 0.0 | 3.5 | 0.00 | 0.00 | 0.00 | 75 | 1009.3 |
| 20260506034119 | 65 | 246 | 1.7 | 5.2 | 0.00 | 0.00 | 0.00 | 75 | 1009.2 |
| 20260506034019 | 65 | 238 | 1.7 | 5.2 | 0.00 | 0.00 | 0.00 | 75 | 1009.1 |
| 20260506033919 | 65 | 265 | 1.7 | 7.0 | 0.00 | 0.00 | 0.00 | 75 | 1009.0 |
| 20260506033820 | 65 | 302 | 7.0 | 7.0 | 0.00 | 0.00 | 0.00 | 75 | 1008.9 |
| 20260506033720 | 65 | 215 | 0.9 | 4.3 | 0.00 | 0.00 | 0.00 | 75 | 1008.9 |
| 20260506033620 | 65 | 285 | 2.6 | 6.1 | 0.00 | 0.00 | 0.00 | 74 | 1009.0 |
| 20260506033519 | 65 | 279 | 3.5 | 6.1 | 0.00 | 0.00 | 0.00 | 74 | 1009.1 |
| 20260506033419 | 65 | 145 | 1.7 | 3.5 | 0.00 | 0.00 | 0.00 | 74 | 1008.9 |
| 20260506033320 | 65 | 195 | 2.6 | 3.5 | 0.00 | 0.00 | 0.00 | 74 | 1009.1 |
| 20260506033219 | 65 | 292 | 0.0 | 5.2 | 0.00 | 0.00 | 0.00 | 74 | 1008.9 |
| 20260506033120 | 66 | 251 | 3.5 | 5.2 | 0.00 | 0.00 | 0.00 | 74 | 1008.9 |
| 20260506033023 | 66 | 257 | 0.9 | 3.5 | 0.00 | 0.00 | 0.00 | 74 | 1008.8 |
| 20260506032919 | 66 | 302 | 1.7 | 3.5 | 0.00 | 0.00 | 0.00 | 74 | 1009.0 |
| 20260506032819 | 66 | 260 | 0.0 | 3.5 | 0.00 | 0.00 | 0.00 | 74 | 1008.8 |
| 20260506032719 | 66 | 198 | 2.6 | 3.5 | 0.00 | 0.00 | 0.00 | 74 | 1008.8 |
| 20260506032620 | 66 | 22 | 1.7 | 7.0 | 0.00 | 0.00 | 0.00 | 74 | 1008.8 |
| 20260506032520 | 66 | 303 | 2.6 | 7.0 | 0.00 | 0.00 | 0.00 | 73 | 1009.0 |
| 20260506032419 | 66 | 254 | 0.9 | 7.0 | 0.00 | 0.00 | 0.00 | 74 | 1009.0 |
| 20260506032119 | 67 | 279 | 0.0 | 4.3 | 0.00 | 0.00 | 0.00 | 73 | 1008.7 |
| 20260506031519 | 67 | 291 | 0.9 | 5.2 | 0.00 | 0.00 | 0.00 | 74 | 1008.6 |
| 20260506031419 | 67 | 263 | 1.7 | 5.2 | 0.00 | 0.00 | 0.00 | 74 | 1008.5 |
| 20260506031320 | 67 | 298 | 2.6 | 4.3 | 0.00 | 0.00 | 0.00 | 74 | 1008.7 |
| 20260506031220 | 67 | 229 | 0.0 | 7.0 | 0.00 | 0.00 | 0.00 | 74 | 1008.8 |
| 20260506030619 | 67 | 249 | 3.5 | 5.2 | 0.00 | 0.00 | 0.00 | 73 | 1008.1 |
| 20260506030520 | 67 | 247 | 4.3 | 4.3 | 0.00 | 0.00 | 0.00 | 73 | 1008.0 |
| 20260506030420 | 68 | 295 | 2.6 | 3.5 | 0.00 | 0.00 | 0.00 | 73 | 1008.2 |
| 20260506030219 | 68 | 296 | 1.7 | 4.3 | 0.00 | 0.00 | 0.00 | 73 | 1008.1 |
| 20260506025918 | 68 | 295 | 3.5 | 5.2 | 0.00 | 0.00 | 0.00 | 73 | 1008.4 |
| 20260506025820 | 68 | 210 | 2.6 | 5.2 | 0.00 | 0.00 | 0.00 | 73 | 1008.4 |
| 20260506025718 | 68 | 272 | 2.6 | 6.1 | 0.00 | 0.00 | 0.00 | 73 | 1008.4 |
| 20260506025619 | 68 | 280 | 4.3 | 7.0 | 0.00 | 0.00 | 0.00 | 72 | 1008.3 |
| 20260506025519 | 69 | 327 | 1.7 | 7.8 | 0.00 | 0.00 | 0.00 | 72 | 1008.4 |
| 20260506025418 | 69 | 283 | 3.5 | 6.1 | 0.00 | 0.00 | 0.00 | 72 | 1008.1 |
| 20260506025318 | 69 | 287 | 4.3 | 5.2 | 0.00 | 0.00 | 0.00 | 72 | 1008.5 |
| 20260506024919 | 69 | 292 | 1.7 | 2.6 | 0.00 | 0.00 | 0.00 | 72 | 1008.0 |
| 20260506024818 | 69 | 304 | 1.7 | 2.6 | 0.00 | 0.00 | 0.00 | 72 | 1007.9 |
| 20260506024719 | 69 | 208 | 0.9 | 4.3 | 0.00 | 0.00 | 0.00 | 72 | 1008.1 |
| 20260506024619 | 69 | 293 | 3.5 | 4.3 | 0.00 | 0.00 | 0.00 | 72 | 1008.1 |
| 20260506024519 | 69 | 289 | 3.5 | 4.3 | 0.00 | 0.00 | 0.00 | 72 | 1007.8 |
| 20260506024420 | 69 | 252 | 1.7 | 4.3 | 0.00 | 0.00 | 0.00 | 72 | 1008.0 |
| 20260506024319 | 69 | 243 | 1.7 | 7.0 | 0.00 | 0.00 | 0.00 | 71 | 1008.0 |
| 20260506024219 | 69 | 273 | 3.5 | 7.0 | 0.00 | 0.00 | 0.00 | 71 | 1007.7 |
| 20260506023919 | 69 | 300 | 1.7 | 3.5 | 0.00 | 0.00 | 0.00 | 71 | 1007.6 |
| 20260506023819 | 70 | 282 | 2.6 | 3.5 | 0.00 | 0.00 | 0.00 | 71 | 1007.9 |
| 20260506023719 | 70 | 288 | 1.7 | 2.6 | 0.00 | 0.00 | 0.00 | 71 | 1007.5 |
| 20260506023619 | 70 | 257 | 0.9 | 2.6 | 0.00 | 0.00 | 0.00 | 71 | 1007.7 |
| 20260506023519 | 70 | 283 | 1.7 | 2.6 | 0.00 | 0.00 | 0.00 | 71 | 1007.4 |
| 20260506023119 | 70 | 280 | 0.0 | 2.6 | 0.00 | 0.00 | 0.00 | 71 | 1007.1 |
| 20260506023019 | 70 | 76 | 0.9 | 2.6 | 0.00 | 0.00 | 0.00 | 71 | 1007.4 |
| 20260506022919 | 70 | 275 | 1.7 | 3.5 | 0.00 | 0.00 | 0.00 | 71 | 1007.2 |
| 20260506022819 | 70 | 330 | 0.9 | 3.5 | 0.00 | 0.00 | 0.00 | 71 | 1007.3 |
| 20260506022720 | 70 | 183 | 1.7 | 5.2 | 0.00 | 0.00 | 0.00 | 72 | 1007.2 |
| 20260506022619 | 70 | 56 | 1.7 | 5.2 | 0.00 | 0.00 | 0.00 | 72 | 1007.4 |
| 20260506022519 | 70 | 274 | 0.9 | 2.6 | 0.00 | 0.00 | 0.00 | 72 | 1007.4 |
| 20260506022419 | 70 | 252 | 0.0 | 1.7 | 0.00 | 0.00 | 0.00 | 72 | 1007.5 |
| 20260506022119 | 70 | 220 | 0.9 | 4.3 | 0.00 | 0.00 | 0.00 | 71 | 1007.0 |
| 20260506022020 | 70 | 249 | 0.0 | 3.5 | 0.00 | 0.00 | 0.00 | 71 | 1007.0 |
| 20260506021919 | 70 | 289 | 1.7 | 3.5 | 0.00 | 0.00 | 0.00 | 71 | 1006.9 |
| 20260506021819 | 70 | 267 | 3.5 | 5.2 | 0.00 | 0.00 | 0.00 | 71 | 1006.8 |
| 20260506021719 | 70 | 143 | 0.0 | 5.2 | 0.00 | 0.00 | 0.00 | 71 | 1007.0 |
| 20260506021419 | 71 | 303 | 1.7 | 6.1 | 0.00 | 0.00 | 0.00 | 71 | 1006.9 |
| 20260506021319 | 71 | 279 | 2.6 | 3.5 | 0.00 | 0.00 | 0.00 | 71 | 1006.8 |
| 20260506021219 | 71 | 221 | 1.7 | 3.5 | 0.00 | 0.00 | 0.00 | 71 | 1006.9 |
| 20260506021119 | 71 | 56 | 1.7 | 3.5 | 0.00 | 0.00 | 0.00 | 71 | 1006.8 |
| 20260506020619 | 71 | 252 | 2.6 | 4.3 | 0.00 | 0.00 | 0.00 | 70 | 1006.6 |
| 20260506020519 | 71 | 283 | 3.5 | 5.2 | 0.00 | 0.00 | 0.00 | 70 | 1006.5 |
| 20260506020419 | 71 | 256 | 2.6 | 5.2 | 0.00 | 0.00 | 0.00 | 70 | 1006.4 |
| 20260506020319 | 72 | 229 | 2.6 | 3.5 | 0.00 | 0.00 | 0.00 | 70 | 1006.5 |
| 20260506020218 | 72 | 133 | 0.0 | 3.5 | 0.00 | 0.00 | 0.00 | 69 | 1006.1 |
| 20260506020120 | 72 | 301 | 1.7 | 2.6 | 0.00 | 0.00 | 0.00 | 69 | 1006.2 |
| 20260506020019 | 72 | 294 | 1.7 | 3.5 | 0.00 | 0.00 | 0.00 | 69 | 1006.1 |
| 20260506015919 | 72 | 228 | 1.7 | 3.5 | 0.00 | 0.00 | 0.00 | 69 | 1006.2 |
| 20260506015819 | 72 | 287 | 1.7 | 3.5 | 0.00 | 0.00 | 0.00 | 69 | 1006.2 |
| 20260506015519 | 72 | 194 | 0.0 | 4.3 | 0.00 | 0.00 | 0.00 | 68 | 1006.4 |
| 20260506015419 | 72 | 295 | 3.5 | 3.5 | 0.00 | 0.00 | 0.00 | 68 | 1006.2 |
| 20260506015319 | 72 | 277 | 2.6 | 4.3 | 0.00 | 0.00 | 0.00 | 68 | 1006.1 |
| 20260506015218 | 72 | 284 | 1.7 | 4.3 | 0.00 | 0.00 | 0.00 | 68 | 1006.1 |
| 20260506015019 | 73 | 345 | 0.9 | 2.6 | 0.00 | 0.00 | 0.00 | 68 | 1006.2 |
| 20260506014919 | 73 | 237 | 0.0 | 4.3 | 0.00 | 0.00 | 0.00 | 67 | 1006.3 |
| 20260506014819 | 73 | 286 | 1.7 | 4.3 | 0.00 | 0.00 | 0.00 | 67 | 1006.4 |
| 20260506014518 | 73 | 275 | 2.6 | 3.5 | 0.00 | 0.00 | 0.00 | 67 | 1006.2 |
| 20260506014319 | 73 | 275 | 0.0 | 2.6 | 0.00 | 0.00 | 0.00 | 67 | 1006.2 |
| 20260506014219 | 73 | 296 | 1.7 | 3.5 | 0.00 | 0.00 | 0.00 | 67 | 1006.2 |
| 20260506014119 | 73 | 139 | 1.7 | 4.3 | 0.00 | 0.00 | 0.00 | 66 | 1006.2 |
| 20260506013820 | 73 | 339 | 0.9 | 1.7 | 0.00 | 0.00 | 0.00 | 66 | 1006.0 |
| 20260506013720 | 73 | 89 | 0.0 | 3.5 | 0.00 | 0.00 | 0.00 | 66 | 1006.0 |
| 20260506013619 | 73 | 204 | 3.5 | 3.5 | 0.00 | 0.00 | 0.00 | 66 | 1006.1 |
| 20260506013219 | 73 | 129 | 1.7 | 2.6 | 0.00 | 0.00 | 0.00 | 66 | 1006.0 |
| 20260506013120 | 73 | 305 | 0.0 | 2.6 | 0.00 | 0.00 | 0.00 | 66 | 1006.3 |
| 20260506013020 | 73 | 231 | 1.7 | 3.5 | 0.00 | 0.00 | 0.00 | 66 | 1006.2 |
| 20260506012919 | 73 | 268 | 2.6 | 3.5 | 0.00 | 0.00 | 0.00 | 66 | 1006.0 |
| 20260506012819 | 73 | 278 | 1.7 | 4.3 | 0.00 | 0.00 | 0.00 | 66 | 1006.2 |
| 20260506012719 | 73 | 250 | 2.6 | 4.3 | 0.00 | 0.00 | 0.00 | 66 | 1006.1 |
| 20260506012419 | 73 | 200 | 1.7 | 2.6 | 0.00 | 0.00 | 0.00 | 66 | 1006.1 |
| 20260506012319 | 73 | 281 | 2.6 | 2.6 | 0.00 | 0.00 | 0.00 | 66 | 1005.7 |
| 20260506012119 | 73 | 343 | 0.0 | 3.5 | 0.00 | 0.00 | 0.00 | 66 | 1006.1 |
| 20260506011919 | 73 | 37 | 1.7 | 2.6 | 0.00 | 0.00 | 0.00 | 66 | 1006.1 |
| 20260506011819 | 73 | 224 | 0.0 | 2.6 | 0.00 | 0.00 | 0.00 | 65 | 1006.0 |
| 20260506011419 | 73 | 266 | 1.7 | 3.5 | 0.00 | 0.00 | 0.00 | 66 | 1005.8 |
| 20260506011320 | 74 | 152 | 1.7 | 3.5 | 0.00 | 0.00 | 0.00 | 66 | 1006.0 |
| 20260506011219 | 74 | 271 | 0.9 | 3.5 | 0.00 | 0.00 | 0.00 | 66 | 1005.9 |
| 20260506011120 | 74 | 294 | 1.7 | 3.5 | 0.00 | 0.00 | 0.00 | 66 | 1005.5 |
| 20260506011019 | 74 | 288 | 0.9 | 3.5 | 0.00 | 0.00 | 0.00 | 66 | 1005.8 |
| 20260506010919 | 74 | 293 | 1.7 | 4.3 | 0.00 | 0.00 | 0.00 | 66 | 1005.7 |
| 20260506010820 | 74 | 325 | 0.9 | 4.3 | 0.00 | 0.00 | 0.00 | 65 | 1005.7 |
| 20260506010720 | 74 | 279 | 1.7 | 2.6 | 0.00 | 0.00 | 0.00 | 66 | 1005.5 |
| 20260506010620 | 74 | 284 | 0.9 | 3.5 | 0.00 | 0.00 | 0.00 | 66 | 1005.4 |
| 20260506010219 | 74 | 229 | 0.0 | 5.2 | 0.00 | 0.00 | 0.00 | 65 | 1005.7 |
| 20260506010119 | 74 | 279 | 3.5 | 5.2 | 0.00 | 0.00 | 0.00 | 65 | 1005.7 |
| 20260506010018 | 74 | 167 | 1.7 | 3.5 | 0.00 | 0.00 | 0.00 | 65 | 1005.4 |
| 20260506005920 | 74 | 291 | 3.5 | 3.5 | 0.00 | 0.00 | 0.00 | 66 | 1005.5 |
| 20260506005819 | 74 | 254 | 0.9 | 4.3 | 0.00 | 0.00 | 0.00 | 66 | 1005.6 |
| 20260506005518 | 74 | 293 | 2.6 | 5.2 | 0.00 | 0.00 | 0.00 | 65 | 1005.4 |
| 20260506005419 | 74 | 264 | 3.5 | 5.2 | 0.00 | 0.00 | 0.00 | 65 | 1005.2 |
| 20260506005319 | 74 | 276 | 2.6 | 5.2 | 0.00 | 0.00 | 0.00 | 65 | 1004.8 |
| 20260506005218 | 74 | 300 | 0.9 | 5.2 | 0.00 | 0.00 | 0.00 | 65 | 1004.9 |
| 20260506005119 | 74 | 264 | 2.6 | 4.3 | 0.00 | 0.00 | 0.00 | 65 | 1004.8 |
| 20260506005019 | 74 | 246 | 3.5 | 3.5 | 0.00 | 0.00 | 0.00 | 65 | 1005.1 |
| 20260506004719 | 74 | 307 | 3.5 | 7.8 | 0.00 | 0.00 | 0.00 | 64 | 1005.4 |
| 20260506004419 | 74 | 337 | 0.9 | 3.5 | 0.00 | 0.00 | 0.00 | 64 | 1005.5 |
| 20260506004319 | 74 | 161 | 2.6 | 4.3 | 0.00 | 0.00 | 0.00 | 64 | 1005.4 |
| 20260506004224 | 74 | 246 | 1.7 | 4.3 | 0.00 | 0.00 | 0.00 | 64 | 1005.5 |
| 20260506004035 | 75 | 297 | 2.6 | 3.5 | 0.00 | 0.00 | 0.00 | 64 | 1005.4 |
| 20260506003620 | 75 | 311 | 0.0 | 4.3 | 0.00 | 0.00 | 0.00 | 64 | 1005.3 |
| 20260506003520 | 75 | 214 | 1.7 | 3.5 | 0.00 | 0.00 | 0.00 | 64 | 1005.4 |
| 20260506003420 | 75 | 85 | 2.6 | 3.5 | 0.00 | 0.00 | 0.00 | 64 | 1005.4 |
| 20260506003119 | 75 | 265 | 2.6 | 3.5 | 0.00 | 0.00 | 0.00 | 64 | 1005.3 |
| 20260506003020 | 75 | 273 | 1.7 | 3.5 | 0.00 | 0.00 | 0.00 | 64 | 1005.2 |
| 20260506002719 | 76 | 286 | 3.5 | 3.5 | 0.00 | 0.00 | 0.00 | 64 | 1005.5 |
| 20260506002620 | 76 | 287 | 2.6 | 3.5 | 0.00 | 0.00 | 0.00 | 64 | 1005.3 |
| 20260506002519 | 76 | 296 | 0.0 | 3.5 | 0.00 | 0.00 | 0.00 | 63 | 1005.1 |
| 20260506002319 | 76 | 280 | 2.6 | 4.3 | 0.00 | 0.00 | 0.00 | 63 | 1005.4 |
| 20260506002219 | 76 | 268 | 4.3 | 4.3 | 0.00 | 0.00 | 0.00 | 63 | 1005.2 |
| 20260506002119 | 76 | 120 | 0.0 | 4.3 | 0.00 | 0.00 | 0.00 | 63 | 1005.2 |
| 20260506002020 | 76 | 280 | 0.9 | 4.3 | 0.00 | 0.00 | 0.00 | 63 | 1005.2 |
| 20260506001619 | 77 | 179 | 1.7 | 3.5 | 0.00 | 0.00 | 0.00 | 62 | 1005.1 |
| 20260506001519 | 77 | 293 | 2.6 | 3.5 | 0.00 | 0.00 | 0.00 | 62 | 1005.1 |
| 20260506001419 | 77 | 219 | 0.0 | 2.6 | 0.00 | 0.00 | 0.00 | 62 | 1005.0 |
| 20260506001320 | 77 | 263 | 1.7 | 3.5 | 0.00 | 0.00 | 0.00 | 62 | 1005.0 |
| 20260506001219 | 77 | 69 | 1.7 | 3.5 | 0.00 | 0.00 | 0.00 | 62 | 1005.1 |
| 20260506001120 | 78 | 241 | 1.7 | 7.0 | 0.00 | 0.00 | 0.00 | 61 | 1005.0 |
| 20260506000920 | 78 | 236 | 1.7 | 5.2 | 0.00 | 0.00 | 0.00 | 61 | 1005.0 |
| 20260506000819 | 78 | 277 | 3.5 | 4.3 | 0.00 | 0.00 | 0.00 | 61 | 1005.0 |
| 20260506000720 | 78 | 70 | 1.7 | 3.5 | 0.00 | 0.00 | 0.00 | 61 | 1005.0 |
| 20260506000620 | 78 | 260 | 2.6 | 4.3 | 0.00 | 0.00 | 0.00 | 60 | 1005.1 |
| 20260506000519 | 78 | 209 | 2.6 | 5.2 | 0.00 | 0.00 | 0.00 | 60 | 1004.8 |
| 20260506000419 | 79 | 298 | 3.5 | 5.2 | 0.00 | 0.00 | 0.00 | 60 | 1004.7 |
| 20260506000119 | 79 | 276 | 1.7 | 3.5 | 0.00 | 0.00 | 0.00 | 60 | 1004.5 |
| 20260505235918 | 79 | 291 | 0.0 | 5.2 | 0.00 | 0.00 | 0.00 | 60 | 1004.3 |
| 20260505235719 | 79 | 278 | 1.7 | 4.3 | 0.00 | 0.00 | 0.00 | 60 | 1004.2 |
| 20260505235618 | 79 | 277 | 1.7 | 3.5 | 0.00 | 0.00 | 0.00 | 60 | 1003.9 |
| 20260505235519 | 79 | 184 | 2.6 | 4.3 | 0.00 | 0.00 | 0.00 | 60 | 1004.2 |
| 20260505235418 | 79 | 285 | 4.3 | 7.8 | 0.00 | 0.00 | 0.00 | 60 | 1003.9 |
| 20260505235319 | 79 | 282 | 3.5 | 7.8 | 0.00 | 0.00 | 0.00 | 60 | 1004.0 |
| 20260505235219 | 79 | 260 | 2.6 | 5.2 | 0.00 | 0.00 | 0.00 | 59 | 1004.2 |
| 20260505235118 | 80 | 279 | 4.3 | 5.2 | 0.00 | 0.00 | 0.00 | 59 | 1004.1 |
| 20260505234919 | 80 | 295 | 2.6 | 4.3 | 0.00 | 0.00 | 0.00 | 59 | 1004.3 |
| 20260505234818 | 80 | 287 | 3.5 | 4.3 | 0.00 | 0.00 | 0.00 | 59 | 1004.0 |
| 20260505234718 | 80 | 265 | 4.3 | 4.3 | 0.00 | 0.00 | 0.00 | 59 | 1003.8 |
| 20260505234618 | 80 | 243 | 3.5 | 5.2 | 0.00 | 0.00 | 0.00 | 58 | 1004.0 |
| 20260505234418 | 80 | 256 | 1.7 | 6.1 | 0.00 | 0.00 | 0.00 | 58 | 1003.9 |
| 20260505234318 | 80 | 233 | 1.7 | 3.5 | 0.00 | 0.00 | 0.00 | 58 | 1004.1 |
| 20260505234218 | 80 | 245 | 0.0 | 5.2 | 0.00 | 0.00 | 0.00 | 58 | 1003.9 |
| 20260505234118 | 80 | 278 | 1.7 | 5.2 | 0.00 | 0.00 | 0.00 | 57 | 1004.0 |
| 20260505234019 | 80 | 267 | 1.7 | 8.7 | 0.00 | 0.00 | 0.00 | 57 | 1004.1 |
| 20260505233919 | 81 | 288 | 1.7 | 8.7 | 0.00 | 0.00 | 0.00 | 57 | 1004.2 |
| 20260505233819 | 81 | 267 | 2.6 | 5.2 | 0.00 | 0.00 | 0.00 | 57 | 1004.2 |
| 20260505233719 | 81 | 313 | 1.7 | 7.8 | 0.00 | 0.00 | 0.00 | 56 | 1004.2 |
| 20260505233619 | 81 | 293 | 3.5 | 7.8 | 0.00 | 0.00 | 0.00 | 56 | 1004.1 |
| 20260505233419 | 82 | 164 | 2.6 | 4.3 | 0.00 | 0.00 | 0.00 | 56 | 1004.2 |
| 20260505233320 | 82 | 260 | 3.5 | 6.1 | 0.00 | 0.00 | 0.00 | 56 | 1004.1 |
| 20260505233220 | 82 | 290 | 3.5 | 7.0 | 0.00 | 0.00 | 0.00 | 56 | 1004.0 |
| 20260505233119 | 82 | 292 | 6.1 | 7.0 | 0.00 | 0.00 | 0.00 | 56 | 1004.1 |
| 20260505233020 | 82 | 279 | 5.2 | 7.0 | 0.00 | 0.00 | 0.00 | 56 | 1004.0 |
| 20260505232719 | 83 | 261 | 3.5 | 3.5 | 0.00 | 0.00 | 0.00 | 55 | 1004.0 |
| 20260505232619 | 83 | 282 | 2.6 | 4.3 | 0.00 | 0.00 | 0.00 | 55 | 1004.0 |
| 20260505232419 | 83 | 294 | 3.5 | 5.2 | 0.00 | 0.00 | 0.00 | 55 | 1003.8 |
| 20260505232119 | 84 | 294 | 4.3 | 8.7 | 0.00 | 0.00 | 0.00 | 52 | 1003.6 |
| 20260505232019 | 84 | 248 | 7.0 | 10.4 | 0.00 | 0.00 | 0.00 | 51 | 1003.7 |
| 20260505231919 | 85 | 273 | 2.6 | 10.4 | 0.00 | 0.00 | 0.00 | 50 | 1003.6 |
| 20260505231819 | 85 | 285 | 3.5 | 7.0 | 0.00 | 0.00 | 0.00 | 50 | 1003.5 |
| 20260505231719 | 85 | 291 | 5.2 | 7.0 | 0.00 | 0.00 | 0.00 | 50 | 1003.6 |
| 20260505231619 | 85 | 236 | 1.7 | 7.0 | 0.00 | 0.00 | 0.00 | 49 | 1003.2 |
| 20260505231519 | 85 | 278 | 2.6 | 7.0 | 0.00 | 0.00 | 0.00 | 49 | 1003.5 |
| 20260505231219 | 85 | 285 | 4.3 | 8.7 | 0.00 | 0.00 | 0.00 | 48 | 1003.3 |
| 20260505231119 | 86 | 284 | 5.2 | 7.8 | 0.00 | 0.00 | 0.00 | 47 | 1003.3 |
| 20260505231019 | 86 | 297 | 6.1 | 7.8 | 0.00 | 0.00 | 0.00 | 47 | 1003.4 |
| 20260505230920 | 86 | 288 | 7.0 | 7.8 | 0.00 | 0.00 | 0.00 | 46 | 1003.2 |
| 20260505230819 | 86 | 281 | 1.7 | 3.5 | 0.00 | 0.00 | 0.00 | 46 | 1003.3 |
| 20260505230719 | 86 | 311 | 2.6 | 6.1 | 0.00 | 0.00 | 0.00 | 46 | 1003.6 |
| 20260505230620 | 86 | 264 | 2.6 | 6.1 | 0.00 | 0.00 | 0.00 | 45 | 1003.5 |
| 20260505230318 | 87 | 285 | 4.3 | 6.1 | 0.00 | 0.00 | 0.00 | 45 | 1003.3 |
| 20260505230019 | 87 | 290 | 1.7 | 5.2 | 0.00 | 0.00 | 0.00 | 44 | 1003.0 |
| 20260505225918 | 87 | 279 | 3.5 | 7.0 | 0.00 | 0.00 | 0.00 | 44 | 1002.7 |
| 20260505225718 | 87 | 279 | 3.5 | 6.1 | 0.00 | 0.00 | 0.00 | 44 | 1003.0 |
| 20260505225619 | 87 | 275 | 4.3 | 7.0 | 0.00 | 0.00 | 0.00 | 44 | 1002.7 |
| 20260505225218 | 88 | 290 | 4.3 | 7.0 | 0.00 | 0.00 | 0.00 | 43 | 1002.8 |
| 20260505225118 | 88 | 285 | 3.5 | 5.2 | 0.00 | 0.00 | 0.00 | 43 | 1002.8 |
| 20260505224819 | 88 | 279 | 6.1 | 6.1 | 0.00 | 0.00 | 0.00 | 43 | 1002.9 |
| 20260505224719 | 88 | 289 | 1.7 | 9.6 | 0.00 | 0.00 | 0.00 | 42 | 1002.8 |
| 20260505224619 | 89 | 280 | 5.2 | 7.8 | 0.00 | 0.00 | 0.00 | 42 | 1003.1 |
| 20260505224518 | 89 | 275 | 5.2 | 7.8 | 0.00 | 0.00 | 0.00 | 42 | 1002.8 |
| 20260505224418 | 89 | 259 | 2.6 | 7.0 | 0.00 | 0.00 | 0.00 | 42 | 1002.7 |
| 20260505224319 | 90 | 294 | 1.7 | 7.0 | 0.00 | 0.00 | 0.00 | 42 | 1002.6 |
| 20260505224218 | 90 | 272 | 4.3 | 7.8 | 0.00 | 0.00 | 0.00 | 43 | 1002.8 |
| 20260505224118 | 90 | 278 | 7.0 | 7.8 | 0.00 | 0.00 | 0.00 | 46 | 1002.8 |
| 20260505224020 | 90 | 285 | 3.5 | 5.2 | 0.00 | 0.00 | 0.00 | 46 | 1002.7 |
| 20260505223919 | 90 | 278 | 1.7 | 3.5 | 0.00 | 0.00 | 0.00 | 46 | 1002.8 |
| 20260505223819 | 90 | 302 | 3.5 | 3.5 | 0.00 | 0.00 | 0.00 | 46 | 1002.7 |
| 20260505223719 | 90 | 300 | 2.6 | 3.5 | 0.00 | 0.00 | 0.00 | 46 | 1002.7 |
| 20260505223619 | 90 | 289 | 2.6 | 4.3 | 0.00 | 0.00 | 0.00 | 45 | 1002.8 |
| 20260505223519 | 91 | 287 | 3.5 | 4.3 | 0.00 | 0.00 | 0.00 | 46 | 1002.5 |
| 20260505223419 | 91 | 291 | 1.7 | 2.6 | 0.00 | 0.00 | 0.00 | 46 | 1002.5 |
| 20260505223319 | 91 | 271 | 1.7 | 1.7 | 0.00 | 0.00 | 0.00 | 47 | 1002.5 |
| 20260505223219 | 91 | 235 | 1.7 | 2.6 | 0.00 | 0.00 | 0.00 | 46 | 1002.6 |
| 20260505222919 | 91 | 261 | 2.6 | 3.5 | 0.00 | 0.00 | 0.00 | 46 | 1002.4 |
| 20260505222819 | 91 | 269 | 0.0 | 3.5 | 0.00 | 0.00 | 0.00 | 46 | 1002.3 |
| 20260505222520 | 91 | 248 | 0.9 | 1.7 | 0.00 | 0.00 | 0.00 | 46 | 1002.3 |
| 20260505222319 | 91 | 279 | 0.9 | 2.6 | 0.00 | 0.00 | 0.00 | 46 | 1002.3 |
| 20260505222019 | 91 | 255 | 3.5 | 4.3 | 0.00 | 0.00 | 0.00 | 46 | 1002.4 |
| 20260505221919 | 91 | 253 | 1.7 | 3.5 | 0.00 | 0.00 | 0.00 | 47 | 1002.1 |
| 20260505221619 | 91 | 269 | 0.0 | 2.6 | 0.00 | 0.00 | 0.00 | 46 | 1002.2 |
| 20260505221519 | 91 | 258 | 1.7 | 3.5 | 0.00 | 0.00 | 0.00 | 45 | 1002.2 |
| 20260505221419 | 91 | 295 | 3.5 | 3.5 | 0.00 | 0.00 | 0.00 | 45 | 1002.1 |
| 20260505221319 | 92 | 265 | 2.6 | 3.5 | 0.00 | 0.00 | 0.00 | 45 | 1002.1 |
| 20260505221119 | 92 | 279 | 1.7 | 3.5 | 0.00 | 0.00 | 0.00 | 45 | 1002.0 |
| 20260505221019 | 92 | 281 | 0.9 | 3.5 | 0.00 | 0.00 | 0.00 | 46 | 1002.2 |
| 20260505220919 | 92 | 274 | 1.7 | 2.6 | 0.00 | 0.00 | 0.00 | 46 | 1002.2 |
| 20260505220319 | 92 | 216 | 1.7 | 2.6 | 0.00 | 0.00 | 0.00 | 47 | 1002.3 |
| 20260505220220 | 92 | 230 | 0.0 | 3.5 | 0.00 | 0.00 | 0.00 | 47 | 1002.4 |
| 20260505220119 | 92 | 277 | 0.9 | 3.5 | 0.00 | 0.00 | 0.00 | 47 | 1002.3 |
| 20260505220020 | 92 | 234 | 1.7 | 3.5 | 0.00 | 0.00 | 0.00 | 47 | 1002.4 |
| 20260505215919 | 92 | 276 | 3.5 | 3.5 | 0.00 | 0.00 | 0.00 | 47 | 1002.4 |
| 20260505215819 | 92 | 264 | 2.6 | 2.6 | 0.00 | 0.00 | 0.00 | 47 | 1002.3 |
| 20260505215620 | 92 | 246 | 0.9 | 4.3 | 0.00 | 0.00 | 0.00 | 47 | 1002.3 |
| 20260505215520 | 92 | 231 | 0.0 | 4.3 | 0.00 | 0.00 | 0.00 | 47 | 1002.3 |
| 20260505215419 | 92 | 275 | 1.7 | 4.3 | 0.00 | 0.00 | 0.00 | 47 | 1002.4 |
| 20260505215319 | 92 | 257 | 1.7 | 4.3 | 0.00 | 0.00 | 0.00 | 47 | 1002.3 |
| 20260505215220 | 92 | 246 | 1.7 | 3.5 | 0.00 | 0.00 | 0.00 | 47 | 1002.5 |
| 20260505215019 | 92 | 272 | 1.7 | 4.3 | 0.00 | 0.00 | 0.00 | 47 | 1002.5 |
| 20260505214919 | 92 | 266 | 3.5 | 4.3 | 0.00 | 0.00 | 0.00 | 47 | 1002.6 |
| 20260505214819 | 92 | 246 | 1.7 | 2.6 | 0.00 | 0.00 | 0.00 | 47 | 1002.4 |
| 20260505214720 | 92 | 229 | 1.7 | 4.3 | 0.00 | 0.00 | 0.00 | 47 | 1002.5 |
| 20260505214420 | 92 | 283 | 2.6 | 2.6 | 0.00 | 0.00 | 0.00 | 47 | 1002.4 |
| 20260505214320 | 91 | 229 | 0.0 | 4.3 | 0.00 | 0.00 | 0.00 | 46 | 1002.3 |
| 20260505214219 | 92 | 269 | 1.7 | 4.3 | 0.00 | 0.00 | 0.00 | 46 | 1002.4 |
| 20260505214119 | 91 | 213 | 0.9 | 2.6 | 0.00 | 0.00 | 0.00 | 47 | 1002.3 |
| 20260505214019 | 91 | 260 | 0.0 | 3.5 | 0.00 | 0.00 | 0.00 | 46 | 1002.5 |
| 20260505213918 | 91 | 274 | 1.7 | 4.3 | 0.00 | 0.00 | 0.00 | 46 | 1002.3 |
| 20260505213820 | 92 | 287 | 1.7 | 7.0 | 0.00 | 0.00 | 0.00 | 47 | 1002.2 |
| 20260505213719 | 92 | 240 | 4.3 | 4.3 | 0.00 | 0.00 | 0.00 | 47 | 1002.6 |
| 20260505213619 | 92 | 264 | 2.6 | 4.3 | 0.00 | 0.00 | 0.00 | 48 | 1002.4 |
| 20260505213320 | 91 | 220 | 2.6 | 5.2 | 0.00 | 0.00 | 0.00 | 47 | 1002.3 |
| 20260505212920 | 91 | 249 | 5.2 | 5.2 | 0.00 | 0.00 | 0.00 | 47 | 1002.7 |
| 20260505212819 | 91 | 209 | 1.7 | 6.1 | 0.00 | 0.00 | 0.00 | 47 | 1002.7 |
| 20260505212519 | 91 | 260 | 1.7 | 3.5 | 0.00 | 0.00 | 0.00 | 48 | 1002.4 |
| 20260505212420 | 91 | 229 | 2.6 | 3.5 | 0.00 | 0.00 | 0.00 | 48 | 1002.7 |
| 20260505212319 | 91 | 276 | 1.7 | 5.2 | 0.00 | 0.00 | 0.00 | 48 | 1002.5 |
| 20260505212219 | 91 | 284 | 3.5 | 3.5 | 0.00 | 0.00 | 0.00 | 48 | 1002.5 |
| 20260505212119 | 91 | 283 | 1.7 | 2.6 | 0.00 | 0.00 | 0.00 | 49 | 1002.8 |
| 20260505212018 | 91 | 275 | 0.9 | 3.5 | 0.00 | 0.00 | 0.00 | 49 | 1002.6 |
| 20260505211919 | 91 | 245 | 1.7 | 3.5 | 0.00 | 0.00 | 0.00 | 49 | 1002.7 |
| 20260505211618 | 91 | 297 | 3.5 | 3.5 | 0.00 | 0.00 | 0.00 | 48 | 1002.8 |
| 20260505211519 | 91 | 235 | 1.7 | 3.5 | 0.00 | 0.00 | 0.00 | 47 | 1002.9 |
| 20260505211418 | 91 | 296 | 0.9 | 4.3 | 0.00 | 0.00 | 0.00 | 48 | 1002.8 |
| 20260505211318 | 91 | 252 | 1.7 | 4.3 | 0.00 | 0.00 | 0.00 | 48 | 1002.7 |
| 20260505211219 | 91 | 267 | 0.0 | 4.3 | 0.00 | 0.00 | 0.00 | 48 | 1002.6 |
| 20260505210918 | 91 | 257 | 5.2 | 5.2 | 0.00 | 0.00 | 0.00 | 48 | 1003.0 |
| 20260505210823 | 91 | 228 | 1.7 | 2.6 | 0.00 | 0.00 | 0.00 | 48 | 1002.8 |
| 20260505210719 | 91 | 183 | 0.9 | 3.5 | 0.00 | 0.00 | 0.00 | 49 | 1002.8 |
| 20260505210420 | 91 | 277 | 0.0 | 4.3 | 0.00 | 0.00 | 0.00 | 49 | 1002.8 |
| 20260505210319 | 90 | 245 | 2.6 | 4.3 | 0.00 | 0.00 | 0.00 | 50 | 1002.8 |
| 20260505205719 | 90 | 271 | 1.7 | 6.1 | 0.00 | 0.00 | 0.00 | 50 | 1002.9 |
| 20260505205619 | 90 | 210 | 2.6 | 5.2 | 0.00 | 0.00 | 0.00 | 50 | 1002.9 |
| 20260505205319 | 91 | 280 | 3.5 | 4.3 | 0.00 | 0.00 | 0.00 | 48 | 1002.8 |
| 20260505205219 | 91 | 252 | 1.7 | 6.1 | 0.00 | 0.00 | 0.00 | 48 | 1003.0 |
| 20260505205120 | 91 | 258 | 5.2 | 6.1 | 0.00 | 0.00 | 0.00 | 48 | 1003.0 |
| 20260505205019 | 90 | 265 | 1.7 | 2.6 | 0.00 | 0.00 | 0.00 | 49 | 1003.0 |
| 20260505204719 | 91 | 243 | 1.7 | 6.1 | 0.00 | 0.00 | 0.00 | 49 | 1003.0 |
| 20260505204519 | 91 | 280 | 3.5 | 3.5 | 0.00 | 0.00 | 0.00 | 49 | 1003.0 |
| 20260505204319 | 91 | 257 | 1.7 | 2.6 | 0.00 | 0.00 | 0.00 | 50 | 1002.9 |
| 20260505204220 | 91 | 256 | 0.9 | 3.5 | 0.00 | 0.00 | 0.00 | 50 | 1003.0 |
| 20260505204119 | 91 | 207 | 1.7 | 3.5 | 0.00 | 0.00 | 0.00 | 50 | 1002.8 |
| 20260505204020 | 91 | 251 | 1.7 | 3.5 | 0.00 | 0.00 | 0.00 | 50 | 1003.1 |
| 20260505203719 | 91 | 209 | 3.5 | 4.3 | 0.00 | 0.00 | 0.00 | 50 | 1003.2 |
| 20260505203620 | 91 | 275 | 0.0 | 3.5 | 0.00 | 0.00 | 0.00 | 50 | 1003.2 |
| 20260505203520 | 90 | 345 | 0.9 | 4.3 | 0.00 | 0.00 | 0.00 | 50 | 1003.3 |
| 20260505203420 | 90 | 238 | 1.7 | 4.3 | 0.00 | 0.00 | 0.00 | 51 | 1003.3 |
| 20260505203319 | 90 | 280 | 2.6 | 3.5 | 0.00 | 0.00 | 0.00 | 53 | 1003.4 |
| 20260505203219 | 90 | 243 | 1.7 | 2.6 | 0.00 | 0.00 | 0.00 | 53 | 1003.2 |
| 20260505203119 | 90 | 289 | 1.7 | 2.6 | 0.00 | 0.00 | 0.00 | 54 | 1003.3 |
| 20260505203019 | 90 | 245 | 2.6 | 2.6 | 0.00 | 0.00 | 0.00 | 54 | 1003.4 |
| 20260505202719 | 89 | 253 | 0.9 | 4.3 | 0.00 | 0.00 | 0.00 | 54 | 1003.4 |
| 20260505202619 | 89 | 237 | 2.6 | 4.3 | 0.00 | 0.00 | 0.00 | 54 | 1003.6 |
| 20260505202519 | 89 | 282 | 1.7 | 4.3 | 0.00 | 0.00 | 0.00 | 54 | 1003.4 |
| 20260505202119 | 89 | 231 | 1.7 | 4.3 | 0.00 | 0.00 | 0.00 | 55 | 1003.4 |
| 20260505202020 | 89 | 231 | 2.6 | 5.2 | 0.00 | 0.00 | 0.00 | 55 | 1003.3 |
| 20260505201920 | 89 | 258 | 5.2 | 5.2 | 0.00 | 0.00 | 0.00 | 56 | 1003.4 |
| 20260505201819 | 89 | 249 | 0.0 | 1.7 | 0.00 | 0.00 | 0.00 | 56 | 1003.4 |
| 20260505201719 | 89 | 265 | 0.9 | 1.7 | 0.00 | 0.00 | 0.00 | 56 | 1003.4 |
| 20260505201619 | 89 | 156 | 0.0 | 2.6 | 0.00 | 0.00 | 0.00 | 56 | 1003.5 |
| 20260505201519 | 89 | 233 | 1.7 | 3.5 | 0.00 | 0.00 | 0.00 | 55 | 1003.4 |
| 20260505201220 | 88 | 169 | 2.6 | 6.1 | 0.00 | 0.00 | 0.00 | 56 | 1003.5 |
| 20260505201120 | 88 | 252 | 1.7 | 7.0 | 0.00 | 0.00 | 0.00 | 56 | 1003.7 |
| 20260505200620 | 88 | 194 | 0.9 | 4.3 | 0.00 | 0.00 | 0.00 | 54 | 1003.6 |
| 20260505200519 | 88 | 284 | 2.6 | 4.3 | 0.00 | 0.00 | 0.00 | 55 | 1003.4 |
| 20260505200319 | 88 | 246 | 0.0 | 3.5 | 0.00 | 0.00 | 0.00 | 56 | 1003.5 |
| 20260505200219 | 88 | 268 | 1.7 | 3.5 | 0.00 | 0.00 | 0.00 | 56 | 1003.4 |
| 20260505200119 | 88 | 242 | 0.9 | 4.3 | 0.00 | 0.00 | 0.00 | 56 | 1003.5 |
| 20260505200019 | 88 | 207 | 1.7 | 6.1 | 0.00 | 0.00 | 0.00 | 55 | 1003.7 |
| 20260505195918 | 88 | 197 | 4.3 | 7.0 | 0.00 | 0.00 | 0.00 | 55 | 1003.5 |
| 20260505195819 | 88 | 264 | 1.7 | 4.3 | 0.00 | 0.00 | 0.00 | 56 | 1003.5 |
| 20260505195520 | 88 | 348 | 0.0 | 4.3 | 0.00 | 0.00 | 0.00 | 57 | 1003.5 |
| 20260505195119 | 88 | 222 | 2.6 | 4.3 | 0.00 | 0.00 | 0.00 | 56 | 1003.4 |
| 20260505195019 | 89 | 236 | 1.7 | 4.3 | 0.00 | 0.00 | 0.00 | 56 | 1003.5 |
| 20260505194919 | 89 | 296 | 4.3 | 4.3 | 0.00 | 0.00 | 0.00 | 56 | 1003.5 |
| 20260505194819 | 89 | 263 | 2.6 | 3.5 | 0.00 | 0.00 | 0.00 | 56 | 1003.6 |
| 20260505194618 | 88 | 264 | 2.6 | 3.5 | 0.00 | 0.00 | 0.00 | 56 | 1003.7 |
| 20260505194519 | 88 | 272 | 2.6 | 4.3 | 0.00 | 0.00 | 0.00 | 57 | 1003.7 |
| 20260505194218 | 88 | 271 | 0.9 | 5.2 | 0.00 | 0.00 | 0.00 | 57 | 1003.7 |
| 20260505194019 | 88 | 226 | 1.7 | 4.3 | 0.00 | 0.00 | 0.00 | 57 | 1003.6 |
| 20260505193919 | 88 | 244 | 1.7 | 4.3 | 0.00 | 0.00 | 0.00 | 57 | 1003.6 |
| 20260505193820 | 87 | 279 | 3.5 | 3.5 | 0.00 | 0.00 | 0.00 | 57 | 1003.5 |
| 20260505193719 | 87 | 14 | 0.0 | 2.6 | 0.00 | 0.00 | 0.00 | 58 | 1003.7 |
| 20260505193619 | 87 | 304 | 1.7 | 2.6 | 0.00 | 0.00 | 0.00 | 57 | 1003.8 |
| 20260505193520 | 87 | 344 | 1.7 | 4.3 | 0.00 | 0.00 | 0.00 | 57 | 1003.7 |
| 20260505193219 | 87 | 235 | 0.9 | 4.3 | 0.00 | 0.00 | 0.00 | 57 | 1004.0 |
| 20260505193120 | 87 | 249 | 3.5 | 4.3 | 0.00 | 0.00 | 0.00 | 57 | 1003.8 |
| 20260505193020 | 87 | 292 | 2.6 | 3.5 | 0.00 | 0.00 | 0.00 | 57 | 1003.8 |
| 20260505192920 | 87 | 273 | 2.6 | 3.5 | 0.00 | 0.00 | 0.00 | 57 | 1003.7 |
| 20260505192819 | 87 | 224 | 1.7 | 3.5 | 0.00 | 0.00 | 0.00 | 57 | 1003.8 |
| 20260505192720 | 87 | 218 | 2.6 | 3.5 | 0.00 | 0.00 | 0.00 | 58 | 1003.7 |
| 20260505192619 | 87 | 222 | 0.9 | 5.2 | 0.00 | 0.00 | 0.00 | 58 | 1003.7 |
| 20260505192519 | 87 | 289 | 1.7 | 5.2 | 0.00 | 0.00 | 0.00 | 57 | 1003.7 |
| 20260505192320 | 87 | 239 | 3.5 | 6.1 | 0.00 | 0.00 | 0.00 | 58 | 1003.8 |
| 20260505192219 | 87 | 221 | 1.7 | 3.5 | 0.00 | 0.00 | 0.00 | 59 | 1003.7 |
| 20260505191719 | 87 | 166 | 1.7 | 2.6 | 0.00 | 0.00 | 0.00 | 59 | 1003.8 |
| 20260505191619 | 87 | 192 | 2.6 | 5.2 | 0.00 | 0.00 | 0.00 | 59 | 1003.6 |
| 20260505191519 | 87 | 6 | 1.7 | 5.2 | 0.00 | 0.00 | 0.00 | 59 | 1003.9 |
| 20260505191419 | 87 | 204 | 2.6 | 5.2 | 0.00 | 0.00 | 0.00 | 59 | 1003.8 |
| 20260505191319 | 86 | 307 | 1.7 | 3.5 | 0.00 | 0.00 | 0.00 | 59 | 1003.8 |
| 20260505191219 | 86 | 145 | 0.9 | 3.5 | 0.00 | 0.00 | 0.00 | 59 | 1003.8 |
| 20260505191120 | 86 | 224 | 1.7 | 4.3 | 0.00 | 0.00 | 0.00 | 59 | 1003.8 |
| 20260505191019 | 86 | 49 | 0.9 | 3.5 | 0.00 | 0.00 | 0.00 | 60 | 1003.7 |
| 20260505190919 | 86 | 200 | 1.7 | 2.6 | 0.00 | 0.00 | 0.00 | 60 | 1003.8 |
| 20260505190719 | 86 | 213 | 2.6 | 6.1 | 0.00 | 0.00 | 0.00 | 60 | 1003.7 |
| 20260505190619 | 86 | 231 | 2.6 | 6.1 | 0.00 | 0.00 | 0.00 | 60 | 1003.6 |
| 20260505190318 | 86 | 169 | 0.9 | 4.3 | 0.00 | 0.00 | 0.00 | 59 | 1003.7 |
| 20260505190218 | 86 | 284 | 1.7 | 4.3 | 0.00 | 0.00 | 0.00 | 60 | 1003.8 |
| 20260505190119 | 86 | 207 | 2.6 | 3.5 | 0.00 | 0.00 | 0.00 | 60 | 1003.8 |
| 20260505185818 | 86 | 252 | 1.7 | 4.3 | 0.00 | 0.00 | 0.00 | 61 | 1003.9 |
| 20260505185719 | 86 | 210 | 1.7 | 4.3 | 0.00 | 0.00 | 0.00 | 61 | 1003.9 |
| 20260505185619 | 85 | 201 | 1.7 | 3.5 | 0.00 | 0.00 | 0.00 | 61 | 1003.9 |
| 20260505185518 | 85 | 208 | 1.7 | 3.5 | 0.00 | 0.00 | 0.00 | 62 | 1003.9 |
| 20260505185419 | 85 | 169 | 0.0 | 3.5 | 0.00 | 0.00 | 0.00 | 62 | 1003.9 |
| 20260505185319 | 85 | 283 | 0.9 | 3.5 | 0.00 | 0.00 | 0.00 | 62 | 1004.0 |
| 20260505185219 | 85 | 218 | 2.6 | 4.3 | 0.00 | 0.00 | 0.00 | 62 | 1004.0 |
| 20260505184918 | 85 | 211 | 0.9 | 4.3 | 0.00 | 0.00 | 0.00 | 61 | 1003.9 |
| 20260505184818 | 85 | 233 | 2.6 | 4.3 | 0.00 | 0.00 | 0.00 | 61 | 1004.1 |
| 20260505184720 | 85 | 213 | 0.0 | 4.3 | 0.00 | 0.00 | 0.00 | 61 | 1004.1 |
| 20260505184619 | 85 | 301 | 0.9 | 4.3 | 0.00 | 0.00 | 0.00 | 61 | 1004.1 |
| 20260505184521 | 85 | 204 | 1.7 | 3.5 | 0.00 | 0.00 | 0.00 | 62 | 1004.0 |
| 20260505184419 | 85 | 222 | 0.0 | 3.5 | 0.00 | 0.00 | 0.00 | 62 | 1004.1 |
| 20260505184319 | 85 | 262 | 1.7 | 3.5 | 0.00 | 0.00 | 0.00 | 62 | 1004.0 |
| 20260505184219 | 85 | 260 | 1.7 | 3.5 | 0.00 | 0.00 | 0.00 | 62 | 1004.1 |
| 20260505184118 | 85 | 292 | 2.6 | 3.5 | 0.00 | 0.00 | 0.00 | 62 | 1004.3 |
| 20260505184019 | 85 | 50 | 0.0 | 2.6 | 0.00 | 0.00 | 0.00 | 62 | 1004.2 |
| 20260505183719 | 85 | 229 | 1.7 | 3.5 | 0.00 | 0.00 | 0.00 | 62 | 1004.1 |
| 20260505183620 | 85 | 217 | 3.5 | 3.5 | 0.00 | 0.00 | 0.00 | 62 | 1004.1 |
| 20260505183319 | 84 | 225 | 1.7 | 4.3 | 0.00 | 0.00 | 0.00 | 62 | 1004.2 |
| 20260505183019 | 85 | 250 | 0.9 | 3.5 | 0.00 | 0.00 | 0.00 | 62 | 1003.9 |
| 20260505182720 | 85 | 255 | 0.0 | 4.3 | 0.00 | 0.00 | 0.00 | 62 | 1004.0 |
| 20260505182620 | 85 | 212 | 4.3 | 4.3 | 0.00 | 0.00 | 0.00 | 62 | 1004.0 |
| 20260505182520 | 85 | 212 | 1.7 | 4.3 | 0.00 | 0.00 | 0.00 | 62 | 1003.8 |
| 20260505182420 | 85 | 317 | 2.6 | 2.6 | 0.00 | 0.00 | 0.00 | 62 | 1003.9 |
| 20260505182319 | 85 | 250 | 1.7 | 5.2 | 0.00 | 0.00 | 0.00 | 61 | 1004.1 |
| 20260505182219 | 85 | 259 | 1.7 | 5.2 | 0.00 | 0.00 | 0.00 | 62 | 1004.1 |
| 20260505182119 | 85 | 247 | 0.0 | 3.5 | 0.00 | 0.00 | 0.00 | 62 | 1003.9 |
| 20260505182019 | 85 | 329 | 1.7 | 3.5 | 0.00 | 0.00 | 0.00 | 62 | 1004.0 |
| 20260505181919 | 84 | 184 | 2.6 | 3.5 | 0.00 | 0.00 | 0.00 | 62 | 1004.2 |
| 20260505181620 | 84 | 179 | 1.7 | 5.2 | 0.00 | 0.00 | 0.00 | 62 | 1004.2 |
| 20260505181520 | 84 | 4 | 0.9 | 5.2 | 0.00 | 0.00 | 0.00 | 62 | 1004.2 |
| 20260505181419 | 84 | 212 | 0.0 | 4.3 | 0.00 | 0.00 | 0.00 | 62 | 1004.0 |
| 20260505181120 | 84 | 205 | 1.7 | 4.3 | 0.00 | 0.00 | 0.00 | 63 | 1004.2 |
| 20260505180820 | 84 | 207 | 3.5 | 4.3 | 0.00 | 0.00 | 0.00 | 63 | 1004.2 |
| 20260505180321 | 84 | 185 | 0.9 | 5.2 | 0.00 | 0.00 | 0.00 | 63 | 1004.0 |
| 20260505180019 | 84 | 253 | 2.6 | 4.3 | 0.00 | 0.00 | 0.00 | 64 | 1004.0 |
| 20260505175918 | 84 | 234 | 1.7 | 4.3 | 0.00 | 0.00 | 0.00 | 64 | 1003.8 |
| 20260505175419 | 83 | 198 | 2.6 | 5.2 | 0.00 | 0.00 | 0.00 | 64 | 1004.2 |
| 20260505175119 | 83 | 231 | 0.9 | 4.3 | 0.00 | 0.00 | 0.00 | 64 | 1004.2 |
| 20260505175019 | 83 | 250 | 2.6 | 5.2 | 0.00 | 0.00 | 0.00 | 64 | 1004.2 |
| 20260505174918 | 83 | 190 | 3.5 | 5.2 | 0.00 | 0.00 | 0.00 | 65 | 1004.0 |
| 20260505174619 | 83 | 359 | 0.0 | 6.1 | 0.00 | 0.00 | 0.00 | 64 | 1004.1 |
| 20260505174419 | 83 | 175 | 1.7 | 3.5 | 0.00 | 0.00 | 0.00 | 65 | 1004.3 |
| 20260505174319 | 83 | 193 | 0.9 | 3.5 | 0.00 | 0.00 | 0.00 | 65 | 1004.2 |
| 20260505174219 | 83 | 212 | 0.9 | 3.5 | 0.00 | 0.00 | 0.00 | 65 | 1004.1 |
| 20260505173919 | 82 | 209 | 0.9 | 4.3 | 0.00 | 0.00 | 0.00 | 66 | 1004.4 |
| 20260505173819 | 82 | 237 | 4.3 | 4.3 | 0.00 | 0.00 | 0.00 | 67 | 1004.2 |
| 20260505173519 | 82 | 187 | 1.7 | 4.3 | 0.00 | 0.00 | 0.00 | 67 | 1004.1 |
| 20260505173419 | 82 | 236 | 1.7 | 5.2 | 0.00 | 0.00 | 0.00 | 66 | 1004.3 |
| 20260505173119 | 82 | 216 | 3.5 | 5.2 | 0.00 | 0.00 | 0.00 | 67 | 1004.6 |
| 20260505173019 | 82 | 120 | 1.7 | 4.3 | 0.00 | 0.00 | 0.00 | 67 | 1004.3 |
| 20260505172919 | 82 | 200 | 3.5 | 6.1 | 0.00 | 0.00 | 0.00 | 66 | 1004.3 |
| 20260505172819 | 82 | 228 | 5.2 | 5.2 | 0.00 | 0.00 | 0.00 | 67 | 1004.4 |
| 20260505172620 | 82 | 308 | 2.6 | 5.2 | 0.00 | 0.00 | 0.00 | 67 | 1004.4 |
| 20260505172319 | 82 | 126 | 1.7 | 4.3 | 0.00 | 0.00 | 0.00 | 67 | 1004.4 |
| 20260505172220 | 81 | 242 | 2.6 | 4.3 | 0.00 | 0.00 | 0.00 | 67 | 1004.4 |
| 20260505172119 | 81 | 258 | 1.7 | 3.5 | 0.00 | 0.00 | 0.00 | 68 | 1004.3 |
| 20260505171619 | 81 | 217 | 4.3 | 4.3 | 0.00 | 0.00 | 0.00 | 68 | 1004.4 |
| 20260505171219 | 81 | 183 | 3.5 | 7.0 | 0.00 | 0.00 | 0.00 | 68 | 1004.2 |
| 20260505171119 | 81 | 212 | 2.6 | 7.0 | 0.00 | 0.00 | 0.00 | 68 | 1004.4 |
| 20260505170819 | 81 | 230 | 4.3 | 5.2 | 0.00 | 0.00 | 0.00 | 69 | 1004.5 |
| 20260505170519 | 80 | 202 | 1.7 | 4.3 | 0.00 | 0.00 | 0.00 | 68 | 1004.6 |
| 20260505170419 | 80 | 204 | 2.6 | 3.5 | 0.00 | 0.00 | 0.00 | 69 | 1004.6 |
| 20260505170318 | 80 | 242 | 2.6 | 5.2 | 0.00 | 0.00 | 0.00 | 68 | 1004.7 |
| 20260505170218 | 80 | 293 | 2.6 | 4.3 | 0.00 | 0.00 | 0.00 | 68 | 1004.6 |
| 20260505170118 | 80 | 247 | 2.6 | 4.3 | 0.00 | 0.00 | 0.00 | 68 | 1004.5 |
| 20260505170019 | 80 | 235 | 3.5 | 4.3 | 0.00 | 0.00 | 0.00 | 68 | 1004.6 |
| 20260505165918 | 81 | 338 | 1.7 | 4.3 | 0.00 | 0.00 | 0.00 | 68 | 1004.3 |
| 20260505165818 | 80 | 199 | 2.6 | 4.3 | 0.00 | 0.00 | 0.00 | 68 | 1004.7 |
| 20260505165118 | 81 | 275 | 2.6 | 4.3 | 0.00 | 0.00 | 0.00 | 68 | 1004.3 |
| 20260505165019 | 81 | 208 | 2.6 | 5.2 | 0.00 | 0.00 | 0.00 | 68 | 1004.4 |
| 20260505164919 | 81 | 226 | 1.7 | 5.2 | 0.00 | 0.00 | 0.00 | 68 | 1004.5 |
| 20260505164818 | 80 | 231 | 0.9 | 5.2 | 0.00 | 0.00 | 0.00 | 68 | 1004.5 |
| 20260505164718 | 80 | 183 | 1.7 | 5.2 | 0.00 | 0.00 | 0.00 | 69 | 1004.5 |
| 20260505164619 | 80 | 193 | 1.7 | 3.5 | 0.00 | 0.00 | 0.00 | 69 | 1004.4 |
| 20260505164419 | 80 | 290 | 0.0 | 3.5 | 0.00 | 0.00 | 0.00 | 69 | 1004.6 |
| 20260505164318 | 80 | 19 | 0.9 | 4.3 | 0.00 | 0.00 | 0.00 | 69 | 1004.6 |
| 20260505164219 | 80 | 303 | 1.7 | 4.3 | 0.00 | 0.00 | 0.00 | 69 | 1004.6 |
| 20260505164118 | 80 | 109 | 0.0 | 4.3 | 0.00 | 0.00 | 0.00 | 69 | 1004.4 |
| 20260505164019 | 80 | 294 | 1.7 | 4.3 | 0.00 | 0.00 | 0.00 | 69 | 1004.5 |
| 20260505163919 | 80 | 189 | 1.7 | 4.3 | 0.00 | 0.00 | 0.00 | 70 | 1004.4 |
| 20260505163819 | 80 | 199 | 3.5 | 3.5 | 0.00 | 0.00 | 0.00 | 70 | 1004.5 |
| 20260505163720 | 79 | 202 | 1.7 | 3.5 | 0.00 | 0.00 | 0.00 | 70 | 1004.6 |
| 20260505163619 | 79 | 229 | 2.6 | 5.2 | 0.00 | 0.00 | 0.00 | 70 | 1004.3 |
| 20260505163519 | 79 | 180 | 3.5 | 5.2 | 0.00 | 0.00 | 0.00 | 70 | 1004.4 |
| 20260505163419 | 79 | 212 | 2.6 | 7.0 | 0.00 | 0.00 | 0.00 | 69 | 1004.5 |
| 20260505163121 | 80 | 303 | 1.7 | 7.0 | 0.00 | 0.00 | 0.00 | 69 | 1004.5 |
| 20260505163021 | 80 | 237 | 2.6 | 5.2 | 0.00 | 0.00 | 0.00 | 69 | 1004.4 |
| 20260505162919 | 80 | 227 | 1.7 | 5.2 | 0.00 | 0.00 | 0.00 | 69 | 1004.3 |
| 20260505162819 | 80 | 181 | 1.7 | 5.2 | 0.00 | 0.00 | 0.00 | 69 | 1004.3 |
| 20260505162719 | 80 | 210 | 2.6 | 5.2 | 0.00 | 0.00 | 0.00 | 69 | 1004.4 |
| 20260505162419 | 80 | 253 | 0.9 | 3.5 | 0.00 | 0.00 | 0.00 | 70 | 1004.4 |
| 20260505162320 | 80 | 248 | 3.5 | 3.5 | 0.00 | 0.00 | 0.00 | 69 | 1004.4 |
| 20260505162019 | 79 | 112 | 3.5 | 4.3 | 0.00 | 0.00 | 0.00 | 70 | 1004.4 |
| 20260505161920 | 79 | 146 | 1.7 | 4.3 | 0.00 | 0.00 | 0.00 | 70 | 1004.6 |
| 20260505161719 | 79 | 287 | 1.7 | 3.5 | 0.00 | 0.00 | 0.00 | 70 | 1004.3 |
| 20260505161620 | 79 | 157 | 0.0 | 3.5 | 0.00 | 0.00 | 0.00 | 70 | 1004.3 |
| 20260505161520 | 79 | 165 | 1.7 | 3.5 | 0.00 | 0.00 | 0.00 | 70 | 1004.4 |
| 20260505161419 | 79 | 240 | 1.7 | 7.8 | 0.00 | 0.00 | 0.00 | 70 | 1004.4 |
| 20260505161320 | 79 | 209 | 3.5 | 5.2 | 0.00 | 0.00 | 0.00 | 70 | 1004.4 |
| 20260505161219 | 79 | 196 | 0.9 | 4.3 | 0.00 | 0.00 | 0.00 | 70 | 1004.4 |
| 20260505161120 | 79 | 246 | 2.6 | 4.3 | 0.00 | 0.00 | 0.00 | 70 | 1004.4 |
| 20260505161020 | 79 | 173 | 1.7 | 4.3 | 0.00 | 0.00 | 0.00 | 71 | 1004.6 |
| 20260505160919 | 79 | 167 | 2.6 | 4.3 | 0.00 | 0.00 | 0.00 | 71 | 1004.6 |
| 20260505160819 | 78 | 71 | 1.7 | 3.5 | 0.00 | 0.00 | 0.00 | 71 | 1004.4 |
| 20260505160520 | 78 | 176 | 1.7 | 5.2 | 0.00 | 0.00 | 0.00 | 71 | 1004.4 |
| 20260505160419 | 78 | 194 | 2.6 | 5.2 | 0.00 | 0.00 | 0.00 | 71 | 1004.4 |
| 20260505160318 | 78 | 180 | 2.6 | 6.1 | 0.00 | 0.00 | 0.00 | 71 | 1004.4 |
| 20260505153020 | 77 | 179 | 0.9 | 6.1 | 0.00 | 0.00 | 0.00 | 73 | 1004.2 |
| 20260505152919 | 77 | 193 | 5.2 | 5.2 | 0.00 | 0.00 | 0.00 | 73 | 1004.0 |
| 20260505152819 | 77 | 191 | 2.6 | 7.0 | 0.00 | 0.00 | 0.00 | 73 | 1004.0 |
| 20260505152719 | 77 | 208 | 2.6 | 5.2 | 0.00 | 0.00 | 0.00 | 73 | 1004.2 |
| 20260505152620 | 77 | 247 | 3.5 | 7.0 | 0.00 | 0.00 | 0.00 | 73 | 1004.4 |
| 20260505152319 | 77 | 217 | 2.6 | 5.2 | 0.00 | 0.00 | 0.00 | 73 | 1004.3 |
| 20260505152219 | 77 | 202 | 2.6 | 5.2 | 0.00 | 0.00 | 0.00 | 73 | 1004.1 |
| 20260505152120 | 77 | 236 | 1.7 | 4.3 | 0.00 | 0.00 | 0.00 | 73 | 1004.3 |
| 20260505152019 | 77 | 163 | 3.5 | 4.3 | 0.00 | 0.00 | 0.00 | 74 | 1004.2 |
| 20260505151719 | 77 | 187 | 1.7 | 5.2 | 0.00 | 0.00 | 0.00 | 75 | 1004.3 |
| 20260505151619 | 77 | 213 | 1.7 | 4.3 | 0.00 | 0.00 | 0.00 | 75 | 1004.3 |
| 20260505151520 | 76 | 195 | 2.6 | 3.5 | 0.00 | 0.00 | 0.00 | 75 | 1004.3 |
| 20260505151419 | 76 | 162 | 0.0 | 3.5 | 0.00 | 0.00 | 0.00 | 76 | 1004.4 |
| 20260505151319 | 76 | 73 | 1.7 | 5.2 | 0.00 | 0.00 | 0.00 | 76 | 1004.6 |
| 20260505151220 | 76 | 195 | 2.6 | 6.1 | 0.00 | 0.00 | 0.00 | 76 | 1004.5 |
| 20260505151120 | 76 | 221 | 3.5 | 6.1 | 0.00 | 0.00 | 0.00 | 76 | 1004.8 |
| 20260505151019 | 76 | 146 | 2.6 | 5.2 | 0.00 | 0.00 | 0.00 | 76 | 1004.7 |
| 20260505150719 | 76 | 112 | 1.7 | 5.2 | 0.00 | 0.00 | 0.00 | 76 | 1004.6 |
| 20260505150619 | 76 | 207 | 1.7 | 5.2 | 0.00 | 0.00 | 0.00 | 76 | 1004.5 |
| 20260505150519 | 76 | 198 | 3.5 | 5.2 | 0.00 | 0.00 | 0.00 | 76 | 1004.6 |
| 20260505150419 | 76 | 154 | 1.7 | 3.5 | 0.00 | 0.00 | 0.00 | 76 | 1004.7 |
| 20260505150319 | 75 | 172 | 1.7 | 3.5 | 0.00 | 0.00 | 0.00 | 76 | 1004.6 |
| 20260505150218 | 75 | 269 | 1.7 | 4.3 | 0.00 | 0.00 | 0.00 | 76 | 1004.5 |
| 20260505150119 | 75 | 213 | 1.7 | 4.3 | 0.00 | 0.00 | 0.00 | 76 | 1004.3 |
| 20260505140618 | 73 | 289 | 5.2 | 5.2 | 0.00 | 0.00 | 0.00 | 80 | 1004.6 |
| 20260505140519 | 73 | 207 | 0.9 | 3.5 | 0.00 | 0.00 | 0.00 | 81 | 1004.7 |
| 20260505140419 | 73 | 198 | 1.7 | 3.5 | 0.00 | 0.00 | 0.00 | 81 | 1004.6 |
| 20260505140318 | 73 | 213 | 3.5 | 3.5 | 0.00 | 0.00 | 0.00 | 81 | 1004.8 |
| 20260505140218 | 73 | 101 | 1.7 | 2.6 | 0.00 | 0.00 | 0.00 | 81 | 1004.7 |
| 20260505140118 | 73 | 215 | 2.6 | 3.5 | 0.00 | 0.00 | 0.00 | 81 | 1004.7 |
| 20260505130219 | 72 | 187 | 3.5 | 3.5 | 0.00 | 0.00 | 0.00 | 83 | 1004.5 |
| 20260505125020 | 71 | 333 | 1.7 | 4.3 | 0.00 | 0.00 | 0.00 | 83 | 1004.2 |
| 20260505124920 | 71 | 161 | 2.6 | 3.5 | 0.00 | 0.00 | 0.00 | 83 | 1004.3 |
| 20260505124820 | 71 | 251 | 1.7 | 3.5 | 0.00 | 0.00 | 0.00 | 83 | 1004.3 |
| 20260505124621 | 71 | 144 | 0.0 | 3.5 | 0.00 | 0.00 | 0.00 | 83 | 1004.2 |
| 20260505124519 | 71 | 198 | 2.6 | 3.5 | 0.00 | 0.00 | 0.00 | 83 | 1004.4 |
| 20260505124420 | 71 | 218 | 1.7 | 4.3 | 0.00 | 0.00 | 0.00 | 83 | 1004.2 |
| 20260505124120 | 71 | 34 | 2.6 | 5.2 | 0.00 | 0.00 | 0.00 | 83 | 1004.3 |
| 20260505124019 | 71 | 173 | 2.6 | 5.2 | 0.00 | 0.00 | 0.00 | 83 | 1004.2 |
| 20260505123919 | 71 | 228 | 1.7 | 5.2 | 0.00 | 0.00 | 0.00 | 83 | 1004.3 |
| 20260505123819 | 71 | 198 | 1.7 | 5.2 | 0.00 | 0.00 | 0.00 | 83 | 1004.1 |
| 20260505123720 | 71 | 206 | 1.7 | 5.2 | 0.00 | 0.00 | 0.00 | 83 | 1004.2 |
| 20260505123619 | 71 | 168 | 2.6 | 5.2 | 0.00 | 0.00 | 0.00 | 83 | 1004.0 |
| 20260505123519 | 71 | 220 | 2.6 | 5.2 | 0.00 | 0.00 | 0.00 | 83 | 1004.2 |
| 20260505123419 | 71 | 230 | 5.2 | 5.2 | 0.00 | 0.00 | 0.00 | 84 | 1004.1 |
| 20260505123319 | 71 | 179 | 2.6 | 4.3 | 0.00 | 0.00 | 0.00 | 84 | 1004.0 |
| 20260505123220 | 71 | 228 | 1.7 | 2.6 | 0.00 | 0.00 | 0.00 | 83 | 1004.2 |
| 20260505123119 | 71 | 238 | 0.9 | 5.2 | 0.00 | 0.00 | 0.00 | 83 | 1004.0 |
| 20260505123019 | 71 | 80 | 3.5 | 5.2 | 0.00 | 0.00 | 0.00 | 84 | 1003.9 |
| 20260505122720 | 71 | 211 | 1.7 | 4.3 | 0.00 | 0.00 | 0.00 | 84 | 1003.7 |
| 20260505122619 | 71 | 120 | 1.7 | 4.3 | 0.00 | 0.00 | 0.00 | 84 | 1003.9 |
| 20260505122519 | 71 | 207 | 2.6 | 3.5 | 0.00 | 0.00 | 0.00 | 84 | 1003.7 |
| 20260505122419 | 71 | 286 | 1.7 | 2.6 | 0.00 | 0.00 | 0.00 | 84 | 1003.9 |
| 20260505122319 | 71 | 224 | 2.6 | 5.2 | 0.00 | 0.00 | 0.00 | 84 | 1004.0 |
| 20260505122219 | 71 | 256 | 1.7 | 5.2 | 0.00 | 0.00 | 0.00 | 84 | 1003.8 |
| 20260505122120 | 71 | 311 | 3.5 | 3.5 | 0.00 | 0.00 | 0.00 | 84 | 1003.9 |
| 20260505122020 | 71 | 236 | 1.7 | 3.5 | 0.00 | 0.00 | 0.00 | 84 | 1003.6 |
| 20260505121719 | 71 | 5 | 1.7 | 4.3 | 0.00 | 0.00 | 0.00 | 84 | 1003.8 |
| 20260505121619 | 71 | 146 | 2.6 | 4.3 | 0.00 | 0.00 | 0.00 | 84 | 1003.8 |
| 20260505121519 | 71 | 180 | 4.3 | 4.3 | 0.00 | 0.00 | 0.00 | 84 | 1003.8 |
| 20260505121219 | 71 | 259 | 3.5 | 3.5 | 0.00 | 0.00 | 0.00 | 83 | 1003.8 |
| 20260505121120 | 71 | 25 | 0.9 | 5.2 | 0.00 | 0.00 | 0.00 | 83 | 1003.7 |
| 20260505121019 | 71 | 151 | 1.7 | 6.1 | 0.00 | 0.00 | 0.00 | 83 | 1003.7 |
| 20260505120919 | 71 | 243 | 3.5 | 6.1 | 0.00 | 0.00 | 0.00 | 83 | 1004.0 |
| 20260505120819 | 71 | 187 | 2.6 | 5.2 | 0.00 | 0.00 | 0.00 | 83 | 1003.9 |
| 20260505120719 | 71 | 219 | 3.5 | 5.2 | 0.00 | 0.00 | 0.00 | 83 | 1003.8 |
| 20260505120619 | 71 | 193 | 1.7 | 3.5 | 0.00 | 0.00 | 0.00 | 83 | 1004.0 |
| 20260505120520 | 71 | 177 | 1.7 | 4.3 | 0.00 | 0.00 | 0.00 | 83 | 1003.7 |
| 20260505120419 | 71 | 213 | 3.5 | 6.1 | 0.00 | 0.00 | 0.00 | 83 | 1003.8 |
| 20260505120319 | 71 | 216 | 2.6 | 6.1 | 0.00 | 0.00 | 0.00 | 83 | 1003.8 |
| 20260505120219 | 71 | 281 | 1.7 | 3.5 | 0.00 | 0.00 | 0.00 | 83 | 1003.8 |
| 20260505115919 | 71 | 195 | 2.6 | 3.5 | 0.00 | 0.00 | 0.00 | 83 | 1003.7 |
| 20260505115819 | 71 | 119 | 1.7 | 3.5 | 0.00 | 0.00 | 0.00 | 83 | 1003.4 |
| 20260505115719 | 71 | 215 | 3.5 | 4.3 | 0.00 | 0.00 | 0.00 | 83 | 1003.6 |
| 20260505115619 | 71 | 186 | 2.6 | 4.3 | 0.00 | 0.00 | 0.00 | 83 | 1003.9 |
| 20260505115519 | 71 | 37 | 1.7 | 4.3 | 0.00 | 0.00 | 0.00 | 83 | 1003.9 |
| 20260505115219 | 71 | 204 | 1.7 | 3.5 | 0.00 | 0.00 | 0.00 | 83 | 1003.6 |
| 20260505115118 | 71 | 171 | 2.6 | 4.3 | 0.00 | 0.00 | 0.00 | 83 | 1003.6 |
| 20260505115019 | 71 | 191 | 1.7 | 4.3 | 0.00 | 0.00 | 0.00 | 83 | 1003.5 |
| 20260505114919 | 71 | 279 | 1.7 | 4.3 | 0.00 | 0.00 | 0.00 | 83 | 1003.5 |
| 20260505114718 | 71 | 157 | 2.6 | 3.5 | 0.00 | 0.00 | 0.00 | 83 | 1003.7 |
| 20260505114620 | 71 | 204 | 1.7 | 3.5 | 0.00 | 0.00 | 0.00 | 83 | 1003.5 |
| 20260505114518 | 71 | 212 | 2.6 | 3.5 | 0.00 | 0.00 | 0.00 | 83 | 1003.4 |
| 20260505114418 | 71 | 149 | 1.7 | 4.3 | 0.00 | 0.00 | 0.00 | 83 | 1003.5 |
| 20260505114319 | 71 | 242 | 2.6 | 4.3 | 0.00 | 0.00 | 0.00 | 83 | 1003.8 |
| 20260505114219 | 71 | 199 | 1.7 | 3.5 | 0.00 | 0.00 | 0.00 | 83 | 1003.8 |
| 20260505114119 | 71 | 281 | 1.7 | 3.5 | 0.00 | 0.00 | 0.00 | 83 | 1003.7 |
| 20260505113819 | 71 | 180 | 0.0 | 2.6 | 0.00 | 0.00 | 0.00 | 83 | 1003.5 |
| 20260505113320 | 71 | 206 | 2.6 | 4.3 | 0.00 | 0.00 | 0.00 | 83 | 1003.7 |
| 20260505113219 | 71 | 157 | 1.7 | 3.5 | 0.00 | 0.00 | 0.00 | 83 | 1003.6 |
| 20260505112919 | 71 | 26 | 0.9 | 3.5 | 0.00 | 0.00 | 0.00 | 83 | 1003.4 |
| 20260505112819 | 71 | 165 | 0.9 | 3.5 | 0.00 | 0.00 | 0.00 | 83 | 1003.5 |
| 20260505112719 | 71 | 183 | 0.9 | 4.3 | 0.00 | 0.00 | 0.00 | 83 | 1003.7 |
| 20260505112620 | 71 | 197 | 4.3 | 4.3 | 0.00 | 0.00 | 0.00 | 83 | 1003.4 |
| 20260505112519 | 71 | 121 | 1.7 | 2.6 | 0.00 | 0.00 | 0.00 | 82 | 1003.4 |
| 20260505112420 | 71 | 106 | 0.0 | 4.3 | 0.00 | 0.00 | 0.00 | 82 | 1003.7 |
| 20260505112119 | 71 | 203 | 1.7 | 3.5 | 0.00 | 0.00 | 0.00 | 82 | 1003.5 |
| 20260505112019 | 71 | 204 | 2.6 | 4.3 | 0.00 | 0.00 | 0.00 | 82 | 1003.4 |
| 20260505111919 | 71 | 159 | 3.5 | 4.3 | 0.00 | 0.00 | 0.00 | 82 | 1003.4 |
| 20260505111819 | 71 | 205 | 2.6 | 3.5 | 0.00 | 0.00 | 0.00 | 82 | 1003.4 |
| 20260505111719 | 71 | 193 | 0.9 | 2.6 | 0.00 | 0.00 | 0.00 | 82 | 1003.5 |
| 20260505111619 | 71 | 309 | 0.9 | 3.5 | 0.00 | 0.00 | 0.00 | 82 | 1003.4 |
| 20260505111519 | 71 | 182 | 3.5 | 3.5 | 0.00 | 0.00 | 0.00 | 82 | 1003.5 |
| 20260505111019 | 71 | 221 | 1.7 | 4.3 | 0.00 | 0.00 | 0.00 | 82 | 1003.8 |
| 20260505110919 | 71 | 241 | 1.7 | 4.3 | 0.00 | 0.00 | 0.00 | 82 | 1003.7 |
| 20260505110820 | 71 | 218 | 1.7 | 3.5 | 0.00 | 0.00 | 0.00 | 82 | 1003.6 |
| 20260505110719 | 71 | 41 | 2.6 | 4.3 | 0.00 | 0.00 | 0.00 | 82 | 1003.6 |
| 20260505110620 | 71 | 192 | 3.5 | 5.2 | 0.00 | 0.00 | 0.00 | 82 | 1003.5 |
| 20260505110419 | 71 | 185 | 2.6 | 3.5 | 0.00 | 0.00 | 0.00 | 83 | 1003.8 |
| 20260505110318 | 71 | 224 | 1.7 | 4.3 | 0.00 | 0.00 | 0.00 | 83 | 1003.8 |
| 20260505110218 | 71 | 203 | 3.5 | 4.3 | 0.00 | 0.00 | 0.00 | 83 | 1003.9 |
| 20260505110118 | 71 | 117 | 0.0 | 3.5 | 0.00 | 0.00 | 0.00 | 83 | 1003.5 |
| 20260505102219 | 71 | 196 | 1.7 | 3.5 | 0.00 | 0.00 | 0.00 | 82 | 1003.5 |
| 20260505102119 | 71 | 200 | 3.5 | 4.3 | 0.00 | 0.00 | 0.00 | 82 | 1003.7 |
| 20260505101818 | 71 | 188 | 2.6 | 3.5 | 0.00 | 0.00 | 0.00 | 82 | 1003.7 |
| 20260505101719 | 71 | 214 | 0.0 | 5.2 | 0.00 | 0.00 | 0.00 | 82 | 1003.7 |
| 20260505101618 | 71 | 220 | 2.6 | 3.5 | 0.00 | 0.00 | 0.00 | 82 | 1003.6 |
| 20260505101519 | 71 | 203 | 1.7 | 3.5 | 0.00 | 0.00 | 0.00 | 82 | 1003.7 |
| 20260505101418 | 71 | 208 | 0.9 | 2.6 | 0.00 | 0.00 | 0.00 | 82 | 1003.7 |
| 20260505101319 | 71 | 61 | 1.7 | 5.2 | 0.00 | 0.00 | 0.00 | 82 | 1003.5 |
| 20260505101218 | 71 | 199 | 2.6 | 5.2 | 0.00 | 0.00 | 0.00 | 82 | 1003.8 |
| 20260505101119 | 71 | 142 | 0.0 | 4.3 | 0.00 | 0.00 | 0.00 | 82 | 1003.8 |
| 20260505101019 | 71 | 175 | 0.9 | 5.2 | 0.00 | 0.00 | 0.00 | 82 | 1003.6 |
| 20260505100919 | 71 | 176 | 1.7 | 3.5 | 0.00 | 0.00 | 0.00 | 82 | 1003.5 |
| 20260505100819 | 71 | 96 | 0.9 | 3.5 | 0.00 | 0.00 | 0.00 | 82 | 1003.4 |
| 20260505100719 | 71 | 186 | 2.6 | 4.3 | 0.00 | 0.00 | 0.00 | 82 | 1003.6 |
| 20260505100619 | 71 | 141 | 1.7 | 4.3 | 0.00 | 0.00 | 0.00 | 82 | 1003.5 |
| 20260505100519 | 71 | 177 | 3.5 | 4.3 | 0.00 | 0.00 | 0.00 | 82 | 1003.5 |
| 20260505100419 | 71 | 212 | 2.6 | 4.3 | 0.00 | 0.00 | 0.00 | 82 | 1003.8 |
| 20260505100218 | 71 | 109 | 0.0 | 3.5 | 0.00 | 0.00 | 0.00 | 82 | 1003.5 |
| 20260505100119 | 71 | 142 | 1.7 | 3.5 | 0.00 | 0.00 | 0.00 | 82 | 1003.7 |
| 20260505100018 | 71 | 265 | 1.7 | 4.3 | 0.00 | 0.00 | 0.00 | 82 | 1003.6 |
| 20260505095919 | 71 | 167 | 0.9 | 5.2 | 0.00 | 0.00 | 0.00 | 82 | 1003.5 |
| 20260505095819 | 71 | 224 | 3.5 | 5.2 | 0.00 | 0.00 | 0.00 | 82 | 1003.5 |
| 20260505095718 | 71 | 112 | 1.7 | 4.3 | 0.00 | 0.00 | 0.00 | 82 | 1003.6 |
| 20260505095618 | 71 | 138 | 0.0 | 4.3 | 0.00 | 0.00 | 0.00 | 82 | 1003.7 |
| 20260505095518 | 71 | 203 | 3.5 | 3.5 | 0.00 | 0.00 | 0.00 | 82 | 1003.7 |
| 20260505095418 | 71 | 284 | 0.9 | 4.3 | 0.00 | 0.00 | 0.00 | 82 | 1003.6 |
| 20260505095318 | 71 | 172 | 2.6 | 4.3 | 0.00 | 0.00 | 0.00 | 82 | 1003.6 |
| 20260505094819 | 71 | 171 | 2.6 | 3.5 | 0.00 | 0.00 | 0.00 | 82 | 1004.0 |
| 20260505094719 | 71 | 156 | 2.6 | 3.5 | 0.00 | 0.00 | 0.00 | 82 | 1003.9 |
| 20260505094618 | 71 | 247 | 0.9 | 5.2 | 0.00 | 0.00 | 0.00 | 82 | 1003.8 |
| 20260505094518 | 71 | 220 | 1.7 | 5.2 | 0.00 | 0.00 | 0.00 | 82 | 1003.8 |
| 20260505094218 | 71 | 186 | 2.6 | 3.5 | 0.00 | 0.00 | 0.00 | 82 | 1003.7 |
| 20260505094118 | 71 | 101 | 0.9 | 3.5 | 0.00 | 0.00 | 0.00 | 83 | 1003.8 |
| 20260505094019 | 71 | 196 | 0.0 | 5.2 | 0.00 | 0.00 | 0.00 | 83 | 1003.7 |
| 20260505093720 | 71 | 167 | 2.6 | 4.3 | 0.00 | 0.00 | 0.00 | 83 | 1004.0 |
| 20260505093618 | 71 | 215 | 2.6 | 5.2 | 0.00 | 0.00 | 0.00 | 83 | 1004.0 |
| 20260505093518 | 71 | 223 | 5.2 | 5.2 | 0.00 | 0.00 | 0.00 | 83 | 1004.0 |
| 20260505093319 | 71 | 291 | 1.7 | 2.6 | 0.00 | 0.00 | 0.00 | 83 | 1003.9 |
| 20260505093219 | 71 | 181 | 1.7 | 3.5 | 0.00 | 0.00 | 0.00 | 83 | 1003.5 |
| 20260505093019 | 71 | 285 | 0.9 | 3.5 | 0.00 | 0.00 | 0.00 | 83 | 1003.8 |
| 20260505092919 | 71 | 66 | 1.7 | 3.5 | 0.00 | 0.00 | 0.00 | 83 | 1003.8 |
| 20260505092819 | 71 | 215 | 2.6 | 3.5 | 0.00 | 0.00 | 0.00 | 83 | 1003.8 |
| 20260505092718 | 71 | 168 | 3.5 | 3.5 | 0.00 | 0.00 | 0.00 | 83 | 1003.7 |
| 20260505092619 | 71 | 20 | 1.7 | 3.5 | 0.00 | 0.00 | 0.00 | 83 | 1004.0 |
| 20260505092318 | 71 | 11 | 0.0 | 2.6 | 0.00 | 0.00 | 0.00 | 83 | 1003.8 |
| 20260505092219 | 71 | 197 | 2.6 | 5.2 | 0.00 | 0.00 | 0.00 | 83 | 1003.9 |
| 20260505092119 | 71 | 226 | 3.5 | 5.2 | 0.00 | 0.00 | 0.00 | 83 | 1003.8 |
| 20260505092018 | 71 | 151 | 1.7 | 5.2 | 0.00 | 0.00 | 0.00 | 83 | 1003.8 |
| 20260505091918 | 71 | 179 | 2.6 | 5.2 | 0.00 | 0.00 | 0.00 | 83 | 1003.9 |
| 20260505091719 | 71 | 329 | 1.7 | 4.3 | 0.00 | 0.00 | 0.00 | 83 | 1003.9 |
| 20260505091619 | 71 | 183 | 2.6 | 6.1 | 0.00 | 0.00 | 0.00 | 83 | 1004.1 |
| 20260505091519 | 71 | 193 | 3.5 | 5.2 | 0.00 | 0.00 | 0.00 | 83 | 1004.0 |
| 20260505091218 | 71 | 226 | 0.9 | 2.6 | 0.00 | 0.00 | 0.00 | 83 | 1003.9 |
| 20260505091119 | 71 | 282 | 2.6 | 2.6 | 0.00 | 0.00 | 0.00 | 83 | 1004.0 |
| 20260505091018 | 71 | 157 | 2.6 | 3.5 | 0.00 | 0.00 | 0.00 | 83 | 1004.1 |
| 20260505090919 | 71 | 343 | 2.6 | 3.5 | 0.00 | 0.00 | 0.00 | 83 | 1004.0 |
| 20260505090819 | 71 | 265 | 1.7 | 4.3 | 0.00 | 0.00 | 0.00 | 83 | 1004.1 |
| 20260505090719 | 71 | 81 | 2.6 | 4.3 | 0.00 | 0.00 | 0.00 | 83 | 1004.1 |
| 20260505090419 | 71 | 346 | 1.7 | 5.2 | 0.00 | 0.00 | 0.00 | 83 | 1004.0 |
| 20260505090319 | 71 | 151 | 1.7 | 3.5 | 0.00 | 0.00 | 0.00 | 83 | 1004.1 |
| 20260505090018 | 71 | 208 | 1.7 | 4.3 | 0.00 | 0.00 | 0.00 | 83 | 1004.0 |
| 20260505085918 | 71 | 180 | 0.0 | 4.3 | 0.00 | 0.00 | 0.00 | 83 | 1004.0 |
| 20260505085819 | 71 | 200 | 1.7 | 4.3 | 0.00 | 0.00 | 0.00 | 83 | 1004.0 |
| 20260505085719 | 71 | 243 | 2.6 | 3.5 | 0.00 | 0.00 | 0.00 | 83 | 1004.1 |
| 20260505085619 | 71 | 126 | 2.6 | 3.5 | 0.00 | 0.00 | 0.00 | 83 | 1004.1 |
| 20260505085518 | 71 | 196 | 3.5 | 3.5 | 0.00 | 0.00 | 0.00 | 83 | 1004.1 |
| 20260505085418 | 71 | 193 | 1.7 | 2.6 | 0.00 | 0.00 | 0.00 | 83 | 1004.0 |
| 20260505085319 | 71 | 105 | 0.9 | 2.6 | 0.00 | 0.00 | 0.00 | 83 | 1004.0 |
| 20260505085219 | 71 | 220 | 1.7 | 2.6 | 0.00 | 0.00 | 0.00 | 83 | 1003.8 |
| 20260505085118 | 71 | 232 | 0.0 | 2.6 | 0.00 | 0.00 | 0.00 | 83 | 1003.9 |
| 20260505085018 | 71 | 96 | 1.7 | 3.5 | 0.00 | 0.00 | 0.00 | 83 | 1003.9 |
| 20260505084918 | 71 | 109 | 2.6 | 4.3 | 0.00 | 0.00 | 0.00 | 83 | 1004.1 |
| 20260505084818 | 71 | 275 | 0.9 | 4.3 | 0.00 | 0.00 | 0.00 | 83 | 1004.2 |
| 20260505084719 | 71 | 183 | 2.6 | 3.5 | 0.00 | 0.00 | 0.00 | 83 | 1004.0 |
| 20260505084618 | 71 | 178 | 0.9 | 3.5 | 0.00 | 0.00 | 0.00 | 83 | 1004.0 |
| 20260505084518 | 71 | 189 | 1.7 | 3.5 | 0.00 | 0.00 | 0.00 | 83 | 1003.9 |
| 20260505084218 | 71 | 189 | 3.5 | 4.3 | 0.00 | 0.00 | 0.00 | 82 | 1004.1 |
| 20260505084119 | 71 | 166 | 0.0 | 2.6 | 0.00 | 0.00 | 0.00 | 82 | 1004.1 |
| 20260505083919 | 71 | 186 | 0.9 | 4.3 | 0.00 | 0.00 | 0.00 | 82 | 1004.0 |
| 20260505083820 | 71 | 250 | 1.7 | 4.3 | 0.00 | 0.00 | 0.00 | 82 | 1004.1 |
| 20260505083719 | 71 | 135 | 1.7 | 3.5 | 0.00 | 0.00 | 0.00 | 82 | 1004.0 |
| 20260505083619 | 71 | 185 | 0.9 | 3.5 | 0.00 | 0.00 | 0.00 | 82 | 1004.4 |
| 20260505083519 | 71 | 246 | 1.7 | 2.6 | 0.00 | 0.00 | 0.00 | 82 | 1004.1 |
| 20260505083419 | 71 | 196 | 1.7 | 3.5 | 0.00 | 0.00 | 0.00 | 82 | 1004.1 |
| 20260505083320 | 71 | 176 | 1.7 | 3.5 | 0.00 | 0.00 | 0.00 | 82 | 1004.1 |
| 20260505083019 | 71 | 151 | 0.9 | 5.2 | 0.00 | 0.00 | 0.00 | 82 | 1004.1 |
| 20260505082919 | 71 | 201 | 1.7 | 3.5 | 0.00 | 0.00 | 0.00 | 82 | 1004.2 |
| 20260505082719 | 71 | 260 | 0.9 | 2.6 | 0.00 | 0.00 | 0.00 | 82 | 1004.1 |
| 20260505082620 | 71 | 159 | 0.0 | 4.3 | 0.00 | 0.00 | 0.00 | 82 | 1004.1 |
| 20260505082519 | 71 | 250 | 1.7 | 4.3 | 0.00 | 0.00 | 0.00 | 82 | 1004.1 |
| 20260505082419 | 71 | 203 | 2.6 | 3.5 | 0.00 | 0.00 | 0.00 | 82 | 1004.1 |
| 20260505082319 | 71 | 201 | 0.0 | 3.5 | 0.00 | 0.00 | 0.00 | 82 | 1004.1 |
| 20260505082220 | 71 | 159 | 0.9 | 2.6 | 0.00 | 0.00 | 0.00 | 82 | 1004.1 |
| 20260505082119 | 71 | 198 | 0.0 | 1.7 | 0.00 | 0.00 | 0.00 | 82 | 1004.2 |
| 20260505082019 | 71 | 208 | 1.7 | 1.7 | 0.00 | 0.00 | 0.00 | 82 | 1004.0 |
| 20260505081719 | 71 | 163 | 1.7 | 4.3 | 0.00 | 0.00 | 0.00 | 82 | 1004.1 |
| 20260505081619 | 71 | 192 | 2.6 | 4.3 | 0.00 | 0.00 | 0.00 | 82 | 1004.3 |
| 20260505081519 | 71 | 71 | 0.9 | 3.5 | 0.00 | 0.00 | 0.00 | 82 | 1004.0 |
| 20260505081419 | 71 | 130 | 1.7 | 5.2 | 0.00 | 0.00 | 0.00 | 82 | 1004.3 |
| 20260505081119 | 71 | 127 | 1.7 | 3.5 | 0.00 | 0.00 | 0.00 | 81 | 1004.2 |
| 20260505081019 | 71 | 242 | 1.7 | 3.5 | 0.00 | 0.00 | 0.00 | 81 | 1004.0 |
| 20260505080919 | 71 | 12 | 0.9 | 3.5 | 0.00 | 0.00 | 0.00 | 81 | 1004.2 |
| 20260505080819 | 71 | 63 | 1.7 | 3.5 | 0.00 | 0.00 | 0.00 | 81 | 1004.2 |
| 20260505080719 | 71 | 256 | 1.7 | 6.1 | 0.00 | 0.00 | 0.00 | 81 | 1004.2 |
| 20260505080619 | 71 | 164 | 3.5 | 6.1 | 0.00 | 0.00 | 0.00 | 81 | 1004.2 |
| 20260505080419 | 71 | 177 | 0.0 | 3.5 | 0.00 | 0.00 | 0.00 | 81 | 1004.2 |
| 20260505080320 | 71 | 183 | 2.6 | 3.5 | 0.00 | 0.00 | 0.00 | 81 | 1004.4 |
| 20260505080119 | 71 | 171 | 0.9 | 1.7 | 0.00 | 0.00 | 0.00 | 81 | 1004.3 |
| 20260505080019 | 71 | 95 | 0.9 | 3.5 | 0.00 | 0.00 | 0.00 | 81 | 1004.1 |
| 20260505075620 | 71 | 199 | 2.6 | 4.3 | 0.00 | 0.00 | 0.00 | 81 | 1004.4 |
| 20260505075519 | 71 | 184 | 1.7 | 3.5 | 0.00 | 0.00 | 0.00 | 81 | 1004.1 |
| 20260505075319 | 71 | 284 | 0.0 | 3.5 | 0.00 | 0.00 | 0.00 | 81 | 1004.1 |
| 20260505075219 | 71 | 186 | 1.7 | 4.3 | 0.00 | 0.00 | 0.00 | 80 | 1004.3 |
| 20260505075119 | 71 | 169 | 2.6 | 4.3 | 0.00 | 0.00 | 0.00 | 80 | 1004.4 |
| 20260505075019 | 71 | 180 | 0.0 | 3.5 | 0.00 | 0.00 | 0.00 | 80 | 1004.2 |
| 20260505074919 | 71 | 165 | 2.6 | 3.5 | 0.00 | 0.00 | 0.00 | 80 | 1004.3 |
| 20260505074819 | 71 | 204 | 1.7 | 4.3 | 0.00 | 0.00 | 0.00 | 80 | 1004.3 |
| 20260505074519 | 71 | 185 | 2.6 | 5.2 | 0.00 | 0.00 | 0.00 | 80 | 1004.4 |
| 20260505074419 | 71 | 248 | 0.9 | 2.6 | 0.00 | 0.00 | 0.00 | 80 | 1004.3 |
| 20260505074319 | 71 | 65 | 0.0 | 2.6 | 0.00 | 0.00 | 0.00 | 80 | 1004.5 |
| 20260505074219 | 72 | 181 | 0.9 | 2.6 | 0.00 | 0.00 | 0.00 | 80 | 1004.4 |
| 20260505074120 | 72 | 82 | 1.7 | 2.6 | 0.00 | 0.00 | 0.00 | 80 | 1004.5 |
| 20260505074019 | 72 | 238 | 0.9 | 2.6 | 0.00 | 0.00 | 0.00 | 80 | 1004.5 |
| 20260505073918 | 72 | 136 | 1.7 | 6.1 | 0.00 | 0.00 | 0.00 | 79 | 1004.5 |
| 20260505073819 | 72 | 206 | 1.7 | 6.1 | 0.00 | 0.00 | 0.00 | 79 | 1004.7 |
| 20260505073719 | 72 | 209 | 1.7 | 3.5 | 0.00 | 0.00 | 0.00 | 79 | 1004.4 |
| 20260505073618 | 72 | 250 | 0.9 | 3.5 | 0.00 | 0.00 | 0.00 | 79 | 1004.6 |
| 20260505073418 | 72 | 180 | 0.0 | 4.3 | 0.00 | 0.00 | 0.00 | 79 | 1004.5 |
| 20260505073318 | 72 | 251 | 4.3 | 4.3 | 0.00 | 0.00 | 0.00 | 79 | 1004.6 |
| 20260505073219 | 72 | 266 | 2.6 | 2.6 | 0.00 | 0.00 | 0.00 | 79 | 1004.6 |
| 20260505073119 | 72 | 151 | 1.7 | 3.5 | 0.00 | 0.00 | 0.00 | 79 | 1004.6 |
| 20260505073018 | 72 | 172 | 0.0 | 3.5 | 0.00 | 0.00 | 0.00 | 79 | 1004.6 |
| 20260505072818 | 72 | 259 | 0.9 | 3.5 | 0.00 | 0.00 | 0.00 | 79 | 1004.6 |
| 20260505072718 | 72 | 208 | 1.7 | 4.3 | 0.00 | 0.00 | 0.00 | 79 | 1004.8 |
| 20260505072618 | 72 | 216 | 0.0 | 4.3 | 0.00 | 0.00 | 0.00 | 78 | 1004.9 |
| 20260505072419 | 72 | 164 | 1.7 | 5.2 | 0.00 | 0.00 | 0.00 | 78 | 1004.8 |
| 20260505072319 | 72 | 207 | 2.6 | 5.2 | 0.00 | 0.00 | 0.00 | 78 | 1004.9 |
| 20260505072219 | 72 | 166 | 2.6 | 3.5 | 0.00 | 0.00 | 0.00 | 78 | 1004.9 |
| 20260505071918 | 72 | 170 | 2.6 | 4.3 | 0.00 | 0.00 | 0.00 | 78 | 1004.7 |
| 20260505071619 | 72 | 229 | 1.7 | 3.5 | 0.00 | 0.00 | 0.00 | 78 | 1005.0 |
| 20260505071519 | 72 | 231 | 2.6 | 3.5 | 0.00 | 0.00 | 0.00 | 78 | 1005.0 |
| 20260505071418 | 72 | 103 | 2.6 | 3.5 | 0.00 | 0.00 | 0.00 | 78 | 1005.0 |
| 20260505071018 | 72 | 203 | 1.7 | 4.3 | 0.00 | 0.00 | 0.00 | 78 | 1004.9 |
| 20260505070919 | 72 | 164 | 1.7 | 3.5 | 0.00 | 0.00 | 0.00 | 78 | 1005.0 |
| 20260505070818 | 72 | 91 | 1.7 | 3.5 | 0.00 | 0.00 | 0.00 | 78 | 1005.1 |
| 20260505070718 | 72 | 137 | 1.7 | 3.5 | 0.00 | 0.00 | 0.00 | 77 | 1005.1 |
| 20260505070618 | 72 | 198 | 1.7 | 3.5 | 0.00 | 0.00 | 0.00 | 77 | 1004.9 |
| 20260505070519 | 72 | 97 | 2.6 | 3.5 | 0.00 | 0.00 | 0.00 | 77 | 1005.1 |
| 20260505070419 | 72 | 209 | 0.9 | 3.5 | 0.00 | 0.00 | 0.00 | 77 | 1004.8 |
| 20260505070219 | 72 | 216 | 1.7 | 4.3 | 0.00 | 0.00 | 0.00 | 77 | 1005.2 |
| 20260505070120 | 72 | 160 | 0.9 | 2.6 | 0.00 | 0.00 | 0.00 | 77 | 1005.1 |
| 20260505070019 | 72 | 184 | 1.7 | 3.5 | 0.00 | 0.00 | 0.00 | 77 | 1005.1 |
| 20260505065919 | 72 | 102 | 0.9 | 2.6 | 0.00 | 0.00 | 0.00 | 77 | 1005.4 |
| 20260505065819 | 72 | 107 | 1.7 | 2.6 | 0.00 | 0.00 | 0.00 | 77 | 1005.1 |
| 20260505065519 | 72 | 104 | 0.0 | 2.6 | 0.00 | 0.00 | 0.00 | 77 | 1005.2 |
| 20260505065319 | 72 | 219 | 0.9 | 4.3 | 0.00 | 0.00 | 0.00 | 77 | 1005.0 |
| 20260505065219 | 72 | 294 | 2.6 | 5.2 | 0.00 | 0.00 | 0.00 | 77 | 1005.2 |
| 20260505065119 | 72 | 166 | 0.9 | 5.2 | 0.00 | 0.00 | 0.00 | 76 | 1005.1 |
| 20260505065019 | 72 | 182 | 1.7 | 4.3 | 0.00 | 0.00 | 0.00 | 76 | 1005.1 |
| 20260505064920 | 72 | 211 | 2.6 | 5.2 | 0.00 | 0.00 | 0.00 | 76 | 1005.5 |
| 20260505064820 | 72 | 183 | 3.5 | 5.2 | 0.00 | 0.00 | 0.00 | 76 | 1005.2 |
| 20260505064720 | 72 | 93 | 0.0 | 6.1 | 0.00 | 0.00 | 0.00 | 76 | 1005.2 |
| 20260505064219 | 72 | 10 | 2.6 | 3.5 | 0.00 | 0.00 | 0.00 | 76 | 1005.3 |
| 20260505064119 | 72 | 184 | 1.7 | 4.3 | 0.00 | 0.00 | 0.00 | 76 | 1005.3 |
| 20260505064018 | 72 | 151 | 2.6 | 4.3 | 0.00 | 0.00 | 0.00 | 76 | 1005.3 |
| 20260505063818 | 72 | 170 | 0.9 | 3.5 | 0.00 | 0.00 | 0.00 | 76 | 1005.3 |
| 20260505063718 | 72 | 269 | 0.9 | 3.5 | 0.00 | 0.00 | 0.00 | 76 | 1005.3 |
| 20260505063619 | 72 | 205 | 2.6 | 4.3 | 0.00 | 0.00 | 0.00 | 76 | 1005.3 |
| 20260505063418 | 72 | 231 | 0.9 | 2.6 | 0.00 | 0.00 | 0.00 | 75 | 1005.3 |
| 20260505063318 | 72 | 180 | 1.7 | 2.6 | 0.00 | 0.00 | 0.00 | 75 | 1005.2 |
| 20260505063218 | 72 | 200 | 2.6 | 3.5 | 0.00 | 0.00 | 0.00 | 75 | 1005.4 |
| 20260505063119 | 72 | 157 | 0.9 | 4.3 | 0.00 | 0.00 | 0.00 | 75 | 1005.5 |
| 20260505063019 | 72 | 179 | 2.6 | 4.3 | 0.00 | 0.00 | 0.00 | 75 | 1005.4 |
| 20260505062918 | 72 | 192 | 2.6 | 5.2 | 0.00 | 0.00 | 0.00 | 75 | 1005.3 |
| 20260505062819 | 72 | 220 | 0.9 | 5.2 | 0.00 | 0.00 | 0.00 | 75 | 1005.5 |
| 20260505062318 | 72 | 199 | 1.7 | 3.5 | 0.00 | 0.00 | 0.00 | 75 | 1005.3 |
| 20260505062218 | 72 | 153 | 1.7 | 4.3 | 0.00 | 0.00 | 0.00 | 75 | 1005.3 |
| 20260505062119 | 72 | 254 | 1.7 | 5.2 | 0.00 | 0.00 | 0.00 | 75 | 1005.4 |
| 20260505062019 | 72 | 136 | 2.6 | 4.3 | 0.00 | 0.00 | 0.00 | 75 | 1005.5 |
| 20260505061918 | 72 | 76 | 1.7 | 2.6 | 0.00 | 0.00 | 0.00 | 75 | 1005.4 |
| 20260505061818 | 72 | 241 | 1.7 | 3.5 | 0.00 | 0.00 | 0.00 | 75 | 1005.6 |
| 20260505061718 | 72 | 78 | 2.6 | 3.5 | 0.00 | 0.00 | 0.00 | 75 | 1005.3 |
| 20260505061618 | 72 | 183 | 0.9 | 4.3 | 0.00 | 0.00 | 0.00 | 75 | 1005.3 |
| 20260505061518 | 72 | 196 | 1.7 | 4.3 | 0.00 | 0.00 | 0.00 | 75 | 1005.3 |
| 20260505061419 | 72 | 185 | 1.7 | 2.6 | 0.00 | 0.00 | 0.00 | 75 | 1005.5 |
| 20260505061318 | 72 | 291 | 0.9 | 3.5 | 0.00 | 0.00 | 0.00 | 75 | 1005.5 |
| 20260505061218 | 72 | 207 | 1.7 | 3.5 | 0.00 | 0.00 | 0.00 | 75 | 1005.4 |
| 20260505061119 | 72 | 88 | 2.6 | 3.5 | 0.00 | 0.00 | 0.00 | 75 | 1005.5 |
| 20260505061019 | 72 | 77 | 0.9 | 3.5 | 0.00 | 0.00 | 0.00 | 75 | 1005.3 |
| 20260505060719 | 72 | 253 | 1.7 | 2.6 | 0.00 | 0.00 | 0.00 | 75 | 1005.4 |
| 20260505060618 | 72 | 252 | 0.0 | 3.5 | 0.00 | 0.00 | 0.00 | 75 | 1005.5 |
| 20260505060519 | 72 | 249 | 1.7 | 3.5 | 0.00 | 0.00 | 0.00 | 75 | 1005.4 |
| 20260505060219 | 72 | 276 | 0.9 | 3.5 | 0.00 | 0.00 | 0.00 | 75 | 1005.2 |
| 20260505055719 | 72 | 16 | 1.7 | 4.3 | 0.00 | 0.00 | 0.00 | 74 | 1005.3 |
| 20260505055619 | 72 | 192 | 2.6 | 4.3 | 0.00 | 0.00 | 0.00 | 74 | 1005.4 |
| 20260505055320 | 72 | 241 | 0.0 | 2.6 | 0.00 | 0.00 | 0.00 | 74 | 1005.4 |
| 20260505055219 | 72 | 194 | 1.7 | 4.3 | 0.00 | 0.00 | 0.00 | 74 | 1005.4 |
| 20260505055119 | 72 | 207 | 1.7 | 4.3 | 0.00 | 0.00 | 0.00 | 74 | 1005.4 |
| 20260505054619 | 72 | 62 | 1.7 | 3.5 | 0.00 | 0.00 | 0.00 | 74 | 1005.4 |
| 20260505054519 | 72 | 199 | 0.0 | 2.6 | 0.00 | 0.00 | 0.00 | 74 | 1005.6 |
| 20260505054419 | 72 | 295 | 0.9 | 3.5 | 0.00 | 0.00 | 0.00 | 74 | 1005.7 |
| 20260505053918 | 72 | 229 | 1.7 | 2.6 | 0.00 | 0.00 | 0.00 | 74 | 1005.6 |
| 20260505053818 | 72 | 189 | 1.7 | 2.6 | 0.00 | 0.00 | 0.00 | 73 | 1005.5 |
| 20260505053618 | 72 | 100 | 1.7 | 3.5 | 0.00 | 0.00 | 0.00 | 73 | 1005.6 |
| 20260505053518 | 72 | 245 | 1.7 | 3.5 | 0.00 | 0.00 | 0.00 | 73 | 1005.6 |
| 20260505053419 | 72 | 205 | 1.7 | 2.6 | 0.00 | 0.00 | 0.00 | 73 | 1005.5 |
| 20260505053318 | 72 | 71 | 0.0 | 3.5 | 0.00 | 0.00 | 0.00 | 73 | 1005.7 |
| 20260505053218 | 72 | 174 | 1.7 | 2.6 | 0.00 | 0.00 | 0.00 | 73 | 1005.6 |
| 20260505052918 | 72 | 193 | 2.6 | 2.6 | 0.00 | 0.00 | 0.00 | 73 | 1005.5 |
| 20260505052718 | 73 | 230 | 1.7 | 2.6 | 0.00 | 0.00 | 0.00 | 73 | 1005.6 |
| 20260505052619 | 73 | 223 | 0.0 | 2.6 | 0.00 | 0.00 | 0.00 | 73 | 1005.7 |
| 20260505052518 | 73 | 36 | 1.7 | 1.7 | 0.00 | 0.00 | 0.00 | 73 | 1005.8 |
| 20260505052418 | 73 | 96 | 0.0 | 3.5 | 0.00 | 0.00 | 0.00 | 73 | 1005.6 |
| 20260505052018 | 73 | 110 | 2.6 | 3.5 | 0.00 | 0.00 | 0.00 | 73 | 1005.7 |
| 20260505051418 | 73 | 0 | 0.0 | 1.7 | 0.00 | 0.00 | 0.00 | 72 | 1005.7 |
| 20260505051219 | 73 | 347 | 0.9 | 2.6 | 0.00 | 0.00 | 0.00 | 72 | 1005.6 |
| 20260505051119 | 73 | 98 | 1.7 | 2.6 | 0.00 | 0.00 | 0.00 | 72 | 1005.6 |
| 20260505051018 | 73 | 133 | 0.0 | 3.5 | 0.00 | 0.00 | 0.00 | 72 | 1005.7 |
| 20260505050919 | 73 | 185 | 0.9 | 3.5 | 0.00 | 0.00 | 0.00 | 72 | 1005.6 |
| 20260505050819 | 73 | 93 | 0.0 | 2.6 | 0.00 | 0.00 | 0.00 | 72 | 1005.6 |
| 20260505050718 | 73 | 34 | 0.9 | 3.5 | 0.00 | 0.00 | 0.00 | 72 | 1005.8 |
| 20260505050619 | 73 | 124 | 2.6 | 3.5 | 0.00 | 0.00 | 0.00 | 72 | 1005.9 |
| 20260505050518 | 73 | 252 | 0.0 | 3.5 | 0.00 | 0.00 | 0.00 | 72 | 1005.8 |
| 20260505050119 | 73 | 51 | 0.9 | 1.7 | 0.00 | 0.00 | 0.00 | 72 | 1005.4 |
| 20260505041720 | 74 | 33 | 0.9 | 3.5 | 0.00 | 0.00 | 0.00 | 70 | 1005.9 |
| 20260505041619 | 74 | 178 | 1.7 | 3.5 | 0.00 | 0.00 | 0.00 | 70 | 1005.7 |
| 20260505041519 | 74 | 166 | 1.7 | 2.6 | 0.00 | 0.00 | 0.00 | 70 | 1006.0 |
| 20260505041419 | 74 | 186 | 1.7 | 1.7 | 0.00 | 0.00 | 0.00 | 70 | 1006.0 |
| 20260505041219 | 74 | 115 | 0.9 | 3.5 | 0.00 | 0.00 | 0.00 | 70 | 1005.9 |
| 20260505041119 | 74 | 229 | 1.7 | 3.5 | 0.00 | 0.00 | 0.00 | 70 | 1005.8 |
| 20260505041019 | 74 | 185 | 1.7 | 3.5 | 0.00 | 0.00 | 0.00 | 70 | 1006.0 |
| 20260505040920 | 74 | 72 | 2.6 | 4.3 | 0.00 | 0.00 | 0.00 | 70 | 1006.0 |
| 20260505040820 | 74 | 207 | 1.7 | 4.3 | 0.00 | 0.00 | 0.00 | 70 | 1006.1 |
| 20260505040219 | 74 | 220 | 0.0 | 4.3 | 0.00 | 0.00 | 0.00 | 69 | 1006.2 |
| 20260505040119 | 74 | 97 | 0.9 | 3.5 | 0.00 | 0.00 | 0.00 | 69 | 1006.0 |
| 20260505040020 | 74 | 314 | 0.0 | 2.6 | 0.00 | 0.00 | 0.00 | 69 | 1005.9 |
| 20260505035919 | 74 | 314 | 1.7 | 2.6 | 0.00 | 0.00 | 0.00 | 69 | 1006.0 |
| 20260505035820 | 74 | 185 | 2.6 | 4.3 | 0.00 | 0.00 | 0.00 | 69 | 1006.1 |
| 20260505035719 | 74 | 199 | 0.9 | 4.3 | 0.00 | 0.00 | 0.00 | 69 | 1006.3 |
| 20260505035619 | 74 | 52 | 1.7 | 3.5 | 0.00 | 0.00 | 0.00 | 69 | 1005.9 |